Darstellungsparameter: Aktuell verwendete Einstellungen:
Skalierung der Graphiken ... ?
xyx+y,   Skalierungsfaktor:      Skalierung: Modus: x, Faktor: 1
Darstellungszeitraum ... ?
Vom - - bis: - -   Zeitraum: 07.06.2008 - 06.06.2011
Min/Max/Avg-Anzeige ... ?
Zeige MMA aktuell
Zeige MMA Monat
Zeige MMA alles
Zeige --A aktuell
Zeige --A Monat
Zeige --A alles
Keine MMA-Anzeige
MMA:
Keine MMA-Graphiken
MMA-Basis: 07.06.2008 - 06.06.2011
Quicknavigation für Darstellung... ?
Tage:      1T, 2T, 3T, 5T -1T -2T -3T -5T +1T +2T +3T +5T
Wochen: 1W, 2W, 3W -1W -2W -3W +1W +2W +3W
Monate: 1M, 3M, 6M -1M -3M -6M +1M +3M +6M
Jahre:    1J, 3J, 5J, 10J -1J -3J -5J -10J +1J +3J +5J +10J
Nutze für die Darstellung ... ?
Originaldaten oder ...
Mittelwerte Minima Maxima auf...
Stundenbasis Tagesbasis Wochenbasis
Monatsbasis Jahresbasis      Datenbasis: Mittelwerte auf Tagesbasis
Darstellen als:
Statistik (Auto) Statistik J:M      Darstellung:
Zur Graphik,    zurück zur Übersicht aller Sensoren.
 
Tabellarische Datenbersicht: ?
 
Sensor: Nr:Datum:Temp:Abs-Feuchte:Windchill:Wind:
Aussen-T/F 1 07-06-2008 00:00:00 19.84417 C 10.51 g/m*3 19.84 C 0 km/h
2 08-06-2008 00:00:00 20.63167 C 10.52 g/m*3 20.63 C 0 km/h
3 09-06-2008 00:00:00 22.875 C 10.01 g/m*3 22.88 C 0 km/h
4 10-06-2008 00:00:00 23.51583 C 9.23 g/m*3 23.52 C 0 km/h
5 11-06-2008 00:00:00 18.4725 C 7.23 g/m*3 18.47 C 0 km/h
6 12-06-2008 00:00:00 12.7425 C 7.69 g/m*3 12.74 C 0 km/h
7 13-06-2008 00:00:00 13.67167 C 7.09 g/m*3 13.67 C 0 km/h
8 14-06-2008 00:00:00 13.75917 C 7.2 g/m*3 13.76 C 0 km/h
9 15-06-2008 00:00:00 13.75333 C 8.27 g/m*3 13.75 C 0 km/h
10 16-06-2008 00:00:00 16.2275 C 7.7 g/m*3 16.23 C 0 km/h
11 17-06-2008 00:00:00 17.34333 C 7.29 g/m*3 17.34 C 0 km/h
12 18-06-2008 00:00:00 20.30583 C 7.89 g/m*3 20.31 C 0 km/h
13 19-06-2008 00:00:00 20.67417 C 8.05 g/m*3 20.67 C 0 km/h
14 20-06-2008 00:00:00 18.32 C 8.63 g/m*3 18.32 C 0 km/h
15 21-06-2008 00:00:00 23.24706 C 9.11 g/m*3 23.25 C 0 km/h
16 22-06-2008 00:00:00 24.30833 C 11.76 g/m*3 24.31 C 0 km/h
17 23-06-2008 00:00:00 22.40417 C 8.41 g/m*3 22.4 C 0 km/h
18 24-06-2008 00:00:00 23.6325 C 8.33 g/m*3 23.63 C 0 km/h
19 25-06-2008 00:00:00 22.66833 C 12.11 g/m*3 22.67 C 0 km/h
20 26-06-2008 00:00:00 20.39833 C 8.44 g/m*3 20.4 C 0 km/h
21 27-06-2008 00:00:00 18.72167 C 8.67 g/m*3 18.72 C 0 km/h
22 28-06-2008 00:00:00 21.21 C 9.93 g/m*3 21.21 C 0 km/h
23 29-06-2008 00:00:00 22.68667 C 9.85 g/m*3 22.69 C 0 km/h
24 30-06-2008 00:00:00 22.95083 C 8.73 g/m*3 22.95 C 0 km/h
25 01-07-2008 00:00:00 24.35583 C 9.2 g/m*3 24.36 C 0 km/h
Sensor: Nr:Datum:Temp:Abs-Feuchte:Windchill:Wind:
Aussen-T/F 26 02-07-2008 00:00:00 26.47583 C 10.39 g/m*3 26.48 C 0 km/h
27 03-07-2008 00:00:00 20.18992 C 12.77 g/m*3 20.19 C 0 km/h
28 04-07-2008 00:00:00 19.38083 C 9.22 g/m*3 19.38 C 0 km/h
29 05-07-2008 00:00:00 21.0575 C 8.87 g/m*3 21.06 C 0 km/h
30 06-07-2008 00:00:00 21.2225 C 8.99 g/m*3 21.22 C 0 km/h
31 07-07-2008 00:00:00 18.24917 C 8.13 g/m*3 18.25 C 0 km/h
32 08-07-2008 00:00:00 17.2125 C 8.69 g/m*3 17.21 C 0 km/h
33 09-07-2008 00:00:00 17.0525 C 8.83 g/m*3 17.05 C 0 km/h
34 10-07-2008 00:00:00 22.32833 C 10.77 g/m*3 22.33 C 0 km/h
35 11-07-2008 00:00:00 20.48167 C 11.17 g/m*3 20.48 C 0 km/h
36 12-07-2008 00:00:00 17.645 C 9.92 g/m*3 17.65 C 0 km/h
37 13-07-2008 00:00:00 17.8375 C 8.02 g/m*3 17.84 C 0 km/h
38 14-07-2008 00:00:00 18.38 C 7.76 g/m*3 18.38 C 0 km/h
39 15-07-2008 00:00:00 19.61978 C 8.34 g/m*3 19.62 C 0 km/h
40 16-07-2008 00:00:00 20.38298 C 10.82 g/m*3 20.38 C 0 km/h
41 17-07-2008 00:00:00 17.22917 C 8.94 g/m*3 17.23 C 0 km/h
42 18-07-2008 00:00:00 16.58125 C 9.74 g/m*3 16.58 C 0 km/h
43 19-07-2008 00:00:00 19.61667 C 9.94 g/m*3 19.62 C 0 km/h
44 20-07-2008 00:00:00 15.48542 C 9.13 g/m*3 15.49 C 0 km/h
45 21-07-2008 00:00:00 12.62917 C 8.41 g/m*3 12.63 C 0 km/h
46 22-07-2008 00:00:00 14.56042 C 9.4 g/m*3 14.56 C 0 km/h
47 23-07-2008 00:00:00 18.94375 C 9.57 g/m*3 18.94 C 0 km/h
48 24-07-2008 00:00:00 22.13958 C 9.31 g/m*3 22.14 C 0 km/h
49 25-07-2008 00:00:00 24.55625 C 9.56 g/m*3 24.56 C 0 km/h
50 26-07-2008 00:00:00 23.54792 C 12.42 g/m*3 23.55 C 0 km/h
Sensor: Nr:Datum:Temp:Abs-Feuchte:Windchill:Wind:
Aussen-T/F 51 27-07-2008 00:00:00 23.20625 C 13.92 g/m*3 23.21 C 0 km/h
52 28-07-2008 00:00:00 25.10833 C 12.45 g/m*3 25.11 C 0 km/h
53 29-07-2008 00:00:00 24.49792 C 12.1 g/m*3 24.5 C 0 km/h
54 30-07-2008 00:00:00 23.67292 C 12.74 g/m*3 23.67 C 0 km/h
55 31-07-2008 00:00:00 24.69792 C 13.38 g/m*3 24.7 C 0 km/h
56 01-08-2008 00:00:00 24.97917 C 10.83 g/m*3 24.98 C 0 km/h
57 02-08-2008 00:00:00 21.29792 C 9.43 g/m*3 21.3 C 0 km/h
58 03-08-2008 00:00:00 23.42561 C 10.97 g/m*3 23.43 C 0 km/h
59 04-08-2008 00:00:00 21.85083 C 10.01 g/m*3 21.85 C 0 km/h
60 05-08-2008 00:00:00 20.3125 C 8.72 g/m*3 20.31 C 0 km/h
61 06-08-2008 00:00:00 24.05417 C 10.21 g/m*3 24.05 C 0 km/h
62 07-08-2008 00:00:00 24.29583 C 11.12 g/m*3 24.3 C 0 km/h
63 08-08-2008 00:00:00 18.50948 C 11.78 g/m*3 18.51 C 0 km/h
64 09-08-2008 00:00:00 19.32 C 9.06 g/m*3 19.32 C 0 km/h
65 10-08-2008 00:00:00 20.1 C 9.41 g/m*3 20.1 C 0 km/h
66 11-08-2008 00:00:00 20.59748 C 9.44 g/m*3 20.6 C 0 km/h
67 12-08-2008 00:00:00 18.91833 C 12.54 g/m*3 18.92 C 0 km/h
68 13-08-2008 00:00:00 18.3525 C 8.74 g/m*3 18.35 C 0 km/h
69 14-08-2008 00:00:00 19.14917 C 7.79 g/m*3 19.15 C 0 km/h
70 15-08-2008 00:00:00 18.3625 C 8.19 g/m*3 18.36 C 0 km/h
71 16-08-2008 00:00:00 18.89 C 8.44 g/m*3 18.89 C 0 km/h
72 17-08-2008 00:00:00 19.10252 C 8.4 g/m*3 19.1 C 0 km/h
73 18-08-2008 00:00:00 21.21 C 10.7 g/m*3 21.21 C 0 km/h
74 19-08-2008 00:00:00 20.7925 C 9.67 g/m*3 20.79 C 0 km/h
75 20-08-2008 00:00:00 18.82 C 9.37 g/m*3 18.82 C 0 km/h
Sensor: Nr:Datum:Temp:Abs-Feuchte:Windchill:Wind:
Aussen-T/F 76 21-08-2008 00:00:00 19.6375 C 8.99 g/m*3 19.64 C 0 km/h
77 22-08-2008 00:00:00 18.45333 C 11.1 g/m*3 18.45 C 0 km/h
78 23-08-2008 00:00:00 14.95083 C 9.15 g/m*3 14.95 C 0 km/h
79 24-08-2008 00:00:00 16.59333 C 8.67 g/m*3 16.59 C 0 km/h
80 25-08-2008 00:00:00 17.43583 C 10.93 g/m*3 17.44 C 0 km/h
81 26-08-2008 00:00:00 19.2725 C 10.13 g/m*3 19.27 C 0 km/h
82 27-08-2008 00:00:00 19.89833 C 10.62 g/m*3 19.9 C 0 km/h
83 28-08-2008 00:00:00 20.35417 C 9.37 g/m*3 20.35 C 0 km/h
84 29-08-2008 00:00:00 20.84454 C 9.74 g/m*3 20.84 C 0 km/h
85 30-08-2008 00:00:00 21.35167 C 10.94 g/m*3 21.35 C 0 km/h
86 31-08-2008 00:00:00 22.25917 C 10.49 g/m*3 22.26 C 0 km/h
87 01-09-2008 00:00:00 20.93917 C 10.36 g/m*3 20.94 C 0 km/h
88 02-09-2008 00:00:00 19.11333 C 9.31 g/m*3 19.11 C 0 km/h
89 03-09-2008 00:00:00 15.21083 C 10.42 g/m*3 15.21 C 0 km/h
90 04-09-2008 00:00:00 13.7025 C 7.94 g/m*3 13.7 C 0 km/h
91 05-09-2008 00:00:00 16.9775 C 10.5 g/m*3 16.98 C 0 km/h
92 06-09-2008 00:00:00 17.5625 C 11.38 g/m*3 17.56 C 0 km/h
93 07-09-2008 00:00:00 16.83583 C 9.34 g/m*3 16.84 C 0 km/h
94 08-09-2008 00:00:00 17.9741 C 8.43 g/m*3 17.97 C 0 km/h
95 09-09-2008 00:00:00 18.12014 C 9.04 g/m*3 18.12 C 0 km/h
96 10-09-2008 00:00:00 21.10243 C 10.72 g/m*3 21.1 C 0 km/h
97 11-09-2008 00:00:00 19.94479 C 12.52 g/m*3 19.94 C 0 km/h
98 12-09-2008 00:00:00 16.69236 C 12.91 g/m*3 16.69 C 0 km/h
99 13-09-2008 00:00:00 12.63937 C 10.07 g/m*3 12.64 C 0 km/h
100 14-09-2008 00:00:00 11.66215 C 6.19 g/m*3 11.66 C 0 km/h
Sensor: Nr:Datum:Temp:Abs-Feuchte:Windchill:Wind:
Aussen-T/F 101 15-09-2008 00:00:00 10.27153 C 7.08 g/m*3 10.27 C 0 km/h
102 16-09-2008 00:00:00 11.32014 C 7.11 g/m*3 11.32 C 0 km/h
103 17-09-2008 00:00:00 11.34948 C 5.77 g/m*3 11.35 C 0 km/h
104 18-09-2008 00:00:00 10.63264 C 5.3 g/m*3 10.63 C 0 km/h
105 19-09-2008 00:00:00 10.48333 C 6.14 g/m*3 10.48 C 0 km/h
106 20-09-2008 00:00:00 11.00556 C 6.26 g/m*3 11.01 C 0 km/h
107 21-09-2008 00:00:00 11.67222 C 6.89 g/m*3 11.67 C 0 km/h
108 22-09-2008 00:00:00 12.57108 C 7.54 g/m*3 12.57 C 0 km/h
109 23-09-2008 00:00:00 12.21111 C 8.35 g/m*3 12.21 C 0 km/h
110 24-09-2008 00:00:00 13.30799 C 9.32 g/m*3 13.31 C 0 km/h
111 25-09-2008 00:00:00 12.56736 C 7.77 g/m*3 12.57 C 0 km/h
112 26-09-2008 00:00:00 12.00521 C 7.09 g/m*3 12.01 C 0 km/h
113 27-09-2008 00:00:00 11.93693 C 7.15 g/m*3 11.94 C 0 km/h
114 28-09-2008 00:00:00 11.96493 C 7.21 g/m*3 11.96 C 0 km/h
115 29-09-2008 00:00:00 11.47396 C 7.33 g/m*3 11.47 C 0 km/h
116 30-09-2008 00:00:00 10.38611 C 7.67 g/m*3 10.39 C 0 km/h
117 01-10-2008 00:00:00 13.07222 C 8.43 g/m*3 13.07 C 0 km/h
118 02-10-2008 00:00:00 10.70244 C 6.41 g/m*3 10.7 C 0 km/h
119 03-10-2008 00:00:00 8.94063 C 6.04 g/m*3 8.94 C 0 km/h
120 04-10-2008 00:00:00 9.76632 C 5.66 g/m*3 9.77 C 0 km/h
121 05-10-2008 00:00:00 11.69062 C 6.1 g/m*3 11.69 C 0 km/h
122 06-10-2008 00:00:00 14.79306 C 10.16 g/m*3 14.79 C 0 km/h
123 07-10-2008 00:00:00 15.17875 C 10.24 g/m*3 15.18 C 0 km/h
124 08-10-2008 00:00:00 13.26389 C 10.6 g/m*3 13.26 C 0 km/h
125 09-10-2008 00:00:00 13.20937 C 8.82 g/m*3 13.21 C 0 km/h
Sensor: Nr:Datum:Temp:Abs-Feuchte:Windchill:Wind:
Aussen-T/F 126 10-10-2008 00:00:00 13.01806 C 8.66 g/m*3 13.02 C 0 km/h
127 11-10-2008 00:00:00 13.2125 C 9 g/m*3 13.21 C 0 km/h
128 12-10-2008 00:00:00 15.40729 C 9.68 g/m*3 15.41 C 0 km/h
129 13-10-2008 00:00:00 14.40976 C 9.47 g/m*3 14.41 C 0 km/h
130 14-10-2008 00:00:00 15.63438 C 9.35 g/m*3 15.63 C 0 km/h
131 15-10-2008 00:00:00 13.57361 C 8.88 g/m*3 13.57 C 0 km/h
132 16-10-2008 00:00:00 11.59444 C 8.43 g/m*3 11.59 C 0 km/h
133 17-10-2008 00:00:00 8.00313 C 6.15 g/m*3 8 C 0 km/h
134 18-10-2008 00:00:00 7.10488 C 5.92 g/m*3 7.1 C 0 km/h
135 19-10-2008 00:00:00 8.10521 C 6.25 g/m*3 8.11 C 0 km/h
136 20-10-2008 00:00:00 9.83646 C 7.21 g/m*3 9.84 C 0 km/h
137 21-10-2008 00:00:00 13.12986 C 9.32 g/m*3 13.13 C 0 km/h
138 22-10-2008 00:00:00 9.36528 C 7.49 g/m*3 9.37 C 0 km/h
139 23-10-2008 00:00:00 9.2115 C 6.5 g/m*3 9.21 C 0 km/h
140 24-10-2008 00:00:00 7.4434 C 6.07 g/m*3 7.44 C 0 km/h
141 25-10-2008 00:00:00 10.48151 C 7.39 g/m*3 10.48 C 0 km/h
142 26-10-2008 00:00:00 10.725 C 6.55 g/m*3 10.73 C 0 km/h
143 27-10-2008 00:00:00 10.21724 C 7.98 g/m*3 10.22 C 0 km/h
144 28-10-2008 00:00:00 6.92456 C 6.29 g/m*3 6.92 C 0 km/h
145 29-10-2008 00:00:00 5.45 C 5.63 g/m*3 5.45 C 0 km/h
146 30-10-2008 00:00:00 4.78947 C 6 g/m*3 4.79 C 0 km/h
147 31-10-2008 00:00:00 5.97414 C 6.34 g/m*3 5.97 C 0 km/h
148 01-11-2008 00:00:00 7.97414 C 7.15 g/m*3 7.97 C 0 km/h
149 02-11-2008 00:00:00 9.98772 C 7.86 g/m*3 9.99 C 0 km/h
150 03-11-2008 00:00:00 9.82241 C 7.83 g/m*3 9.82 C 0 km/h
Sensor: Nr:Datum:Temp:Abs-Feuchte:Windchill:Wind:
Aussen-T/F 151 04-11-2008 00:00:00 9.00351 C 7.82 g/m*3 9 C 0 km/h
152 05-11-2008 00:00:00 9.79828 C 7.68 g/m*3 9.8 C 0 km/h
153 06-11-2008 00:00:00 10.54483 C 7.37 g/m*3 10.54 C 0 km/h
154 07-11-2008 00:00:00 10.79123 C 7.22 g/m*3 10.79 C 0 km/h
155 08-11-2008 00:00:00 8.24828 C 6.77 g/m*3 8.25 C 0 km/h
156 09-11-2008 00:00:00 8.89583 C 7.31 g/m*3 8.9 C 0 km/h
157 10-11-2008 00:00:00 13.98833 C 7.91 g/m*3 13.99 C 0 km/h
158 11-11-2008 00:00:00 12.73917 C 6.46 g/m*3 12.74 C 0 km/h
159 12-11-2008 00:00:00 8.5175 C 6.56 g/m*3 8.52 C 0 km/h
160 13-11-2008 00:00:00 6.40667 C 6.06 g/m*3 6.41 C 0 km/h
161 14-11-2008 00:00:00 5.60833 C 5.47 g/m*3 5.61 C 0 km/h
162 15-11-2008 00:00:00 9.82083 C 7.04 g/m*3 9.82 C 0 km/h
163 16-11-2008 00:00:00 9.9375 C 7.83 g/m*3 9.94 C 0 km/h
164 17-11-2008 00:00:00 4.03167 C 5.46 g/m*3 4.03 C 0 km/h
165 18-11-2008 00:00:00 4.76417 C 5.59 g/m*3 4.76 C 0 km/h
166 19-11-2008 00:00:00 7.7775 C 6.09 g/m*3 7.78 C 0 km/h
167 20-11-2008 00:00:00 9.54 C 6.58 g/m*3 9.54 C 0 km/h
168 21-11-2008 00:00:00 5.21083 C 5.22 g/m*3 5.21 C 0 km/h
169 22-11-2008 00:00:00 1.08571 C 3.81 g/m*3 1.09 C 0 km/h
170 23-11-2008 00:00:00 0.81333 C 4.11 g/m*3 0.81 C 0 km/h
171 24-11-2008 00:00:00 1.92667 C 4.67 g/m*3 1.93 C 0 km/h
172 25-11-2008 00:00:00 0.79667 C 4.51 g/m*3 0.8 C 0 km/h
173 26-11-2008 00:00:00 2.38333 C 4.91 g/m*3 2.38 C 0 km/h
174 27-11-2008 00:00:00 3.435 C 4.58 g/m*3 3.44 C 0 km/h
175 28-11-2008 00:00:00 0.47667 C 3.78 g/m*3 0.48 C 0 km/h
Sensor: Nr:Datum:Temp:Abs-Feuchte:Windchill:Wind:
Aussen-T/F 176 29-11-2008 00:00:00 0.98 C 4.13 g/m*3 0.98 C 0 km/h
177 30-11-2008 00:00:00 1.12 C 4.72 g/m*3 1.12 C 0 km/h
178 01-12-2008 00:00:00 0.30417 C 4.54 g/m*3 0.3 C 0 km/h
179 02-12-2008 00:00:00 2.80917 C 4.97 g/m*3 2.81 C 0 km/h
180 03-12-2008 00:00:00 1.785 C 4.91 g/m*3 1.79 C 0 km/h
181 04-12-2008 00:00:00 1.92353 C 5.05 g/m*3 1.92 C 0 km/h
182 05-12-2008 00:00:00 5.36 C 6.01 g/m*3 5.36 C 0 km/h
183 06-12-2008 00:00:00 4.73 C 5.89 g/m*3 4.73 C 0 km/h
184 07-12-2008 00:00:00 3.85333 C 5.78 g/m*3 3.85 C 0 km/h
185 08-12-2008 00:00:00 0.26917 C 4.58 g/m*3 0.27 C 0 km/h
186 09-12-2008 00:00:00 0.56667 C 4.36 g/m*3 0.57 C 0 km/h
187 10-12-2008 00:00:00 1.97667 C 5.17 g/m*3 1.98 C 0 km/h
188 11-12-2008 00:00:00 1.4775 C 4.54 g/m*3 1.48 C 0 km/h
189 12-12-2008 00:00:00 -0.23583 C 3.8 g/m*3 -0.24 C 0 km/h
190 13-12-2008 00:00:00 -0.26167 C 3.56 g/m*3 -0.26 C 0 km/h
191 14-12-2008 00:00:00 0.28083 C 4.24 g/m*3 0.28 C 0 km/h
192 15-12-2008 00:00:00 -0.1075 C 4.53 g/m*3 -0.11 C 0 km/h
193 16-12-2008 00:00:00 0.42521 C 4.59 g/m*3 0.43 C 0 km/h
194 17-12-2008 00:00:00 -0.0375 C 4.31 g/m*3 -0.04 C 0 km/h
195 18-12-2008 00:00:00 2.15083 C 5.01 g/m*3 2.15 C 0 km/h
196 19-12-2008 00:00:00 4.22333 C 5.23 g/m*3 4.22 C 0 km/h
197 20-12-2008 00:00:00 6.45667 C 6.48 g/m*3 6.46 C 0 km/h
198 21-12-2008 00:00:00 7.94917 C 6.81 g/m*3 7.95 C 0 km/h
199 22-12-2008 00:00:00 8.47167 C 6.7 g/m*3 8.47 C 0 km/h
200 23-12-2008 00:00:00 6.21417 C 5.86 g/m*3 6.21 C 0 km/h
Sensor: Nr:Datum:Temp:Abs-Feuchte:Windchill:Wind:
Aussen-T/F 201 24-12-2008 00:00:00 4.55833 C 5.62 g/m*3 4.56 C 0 km/h
202 25-12-2008 00:00:00 4.40252 C 4.56 g/m*3 4.4 C 0 km/h
203 26-12-2008 00:00:00 -1.1875 C 2.6 g/m*3 -1.19 C 0 km/h
204 27-12-2008 00:00:00 -1.85667 C 2.56 g/m*3 -1.86 C 0 km/h
205 28-12-2008 00:00:00 -3.02917 C 2.53 g/m*3 -3.03 C 0 km/h
206 29-12-2008 00:00:00 -5.49833 C 2.6 g/m*3 -5.5 C 0 km/h
207 30-12-2008 00:00:00 -6.21833 C 2.53 g/m*3 -6.22 C 0 km/h
208 31-12-2008 00:00:00 -4.32583 C 2.92 g/m*3 -4.33 C 0 km/h
209 01-01-2009 00:00:00 -3.46417 C 2.96 g/m*3 -3.46 C 0 km/h
210 02-01-2009 00:00:00 -2.03917 C 3.39 g/m*3 -2.04 C 0 km/h
211 03-01-2009 00:00:00 -3.57 C 2.96 g/m*3 -3.57 C 0 km/h
212 04-01-2009 00:00:00 -1.06833 C 2.96 g/m*3 -1.07 C 0 km/h
213 05-01-2009 00:00:00 -1.23866 C 3.28 g/m*3 -1.24 C 0 km/h
214 06-01-2009 00:00:00 -6.97 C 1.26 g/m*3 -6.97 C 0 km/h
215 07-01-2009 00:00:00 -10.99167 C 1.39 g/m*3 -10.99 C 0 km/h
216 08-01-2009 00:00:00 -6.02083 C 2.27 g/m*3 -6.02 C 0 km/h
217 09-01-2009 00:00:00 -11.165 C 1.54 g/m*3 -11.17 C 0 km/h
218 10-01-2009 00:00:00 -11.3175 C 1.53 g/m*3 -11.32 C 0 km/h
219 11-01-2009 00:00:00 -8.9975 C 1.92 g/m*3 -9 C 0 km/h
220 12-01-2009 00:00:00 -7.30417 C 2.15 g/m*3 -7.3 C 0 km/h
221 13-01-2009 00:00:00 -0.17833 C 3.29 g/m*3 -0.18 C 0 km/h
222 14-01-2009 00:00:00 -0.15917 C 4.05 g/m*3 -0.16 C 0 km/h
223 15-01-2009 00:00:00 0.77417 C 4.28 g/m*3 0.77 C 0 km/h
224 16-01-2009 00:00:00 0.69833 C 3.9 g/m*3 0.7 C 0 km/h
225 17-01-2009 00:00:00 2.97833 C 4.9 g/m*3 2.98 C 0 km/h
Sensor: Nr:Datum:Temp:Abs-Feuchte:Windchill:Wind:
Aussen-T/F 226 18-01-2009 00:00:00 4.50924 C 5.1 g/m*3 4.51 C 0 km/h
227 19-01-2009 00:00:00 5.4575 C 5.21 g/m*3 5.46 C 0 km/h
228 20-01-2009 00:00:00 3.6475 C 4.19 g/m*3 3.65 C 0 km/h
229 21-01-2009 00:00:00 0.32 C 4.11 g/m*3 0.32 C 0 km/h
230 22-01-2009 00:00:00 2.825 C 4.02 g/m*3 2.83 C 0 km/h
231 23-01-2009 00:00:00 4.345 C 5.29 g/m*3 4.35 C 0 km/h
232 24-01-2009 00:00:00 3.13 C 4.29 g/m*3 3.13 C 0 km/h
233 25-01-2009 00:00:00 0.15167 C 4.08 g/m*3 0.15 C 0 km/h
234 26-01-2009 00:00:00 -2.16917 C 3.69 g/m*3 -2.17 C 0 km/h
235 27-01-2009 00:00:00 -0.93167 C 3.93 g/m*3 -0.93 C 0 km/h
236 28-01-2009 00:00:00 0.50833 C 4.02 g/m*3 0.51 C 0 km/h
237 29-01-2009 00:00:00 1.15667 C 3.12 g/m*3 1.16 C 0 km/h
238 30-01-2009 00:00:00 -1.50917 C 3.06 g/m*3 -1.51 C 0 km/h
239 31-01-2009 00:00:00 0.06303 C 2.59 g/m*3 0.06 C 0 km/h
240 01-02-2009 00:00:00 -0.11167 C 2.24 g/m*3 -0.11 C 0 km/h
241 02-02-2009 00:00:00 1.085 C 2.84 g/m*3 1.09 C 0 km/h
242 03-02-2009 00:00:00 0.63833 C 3.81 g/m*3 0.64 C 0 km/h
243 04-02-2009 00:00:00 3.0025 C 4.61 g/m*3 3 C 0 km/h
244 05-02-2009 00:00:00 3.2325 C 4.69 g/m*3 3.23 C 0 km/h
245 06-02-2009 00:00:00 4.3 C 5.03 g/m*3 4.3 C 0 km/h
246 07-02-2009 00:00:00 4.03417 C 5.27 g/m*3 4.03 C 0 km/h
247 08-02-2009 00:00:00 2.6525 C 3.3 g/m*3 2.65 C 0 km/h
248 09-02-2009 00:00:00 2.3775 C 3.79 g/m*3 2.38 C 0 km/h
249 10-02-2009 00:00:00 4.155 C 5.17 g/m*3 4.16 C 0 km/h
250 11-02-2009 00:00:00 2.90333 C 3.62 g/m*3 2.9 C 0 km/h
Sensor: Nr:Datum:Temp:Abs-Feuchte:Windchill:Wind:
Aussen-T/F 251 12-02-2009 00:00:00 0.68908 C 3.9 g/m*3 0.69 C 0 km/h
252 13-02-2009 00:00:00 0.51333 C 4.05 g/m*3 0.51 C 0 km/h
253 14-02-2009 00:00:00 0.46083 C 3.41 g/m*3 0.46 C 0 km/h
254 15-02-2009 00:00:00 -1.63583 C 2.82 g/m*3 -1.64 C 0 km/h
255 16-02-2009 00:00:00 1.96417 C 4.68 g/m*3 1.96 C 0 km/h
256 17-02-2009 00:00:00 3.77167 C 5.13 g/m*3 3.77 C 0 km/h
257 18-02-2009 00:00:00 -1.62667 C 2.39 g/m*3 -1.63 C 0 km/h
258 19-02-2009 00:00:00 1.01417 C 2.7 g/m*3 1.01 C 0 km/h
259 20-02-2009 00:00:00 3.41917 C 5.01 g/m*3 3.42 C 0 km/h
260 21-02-2009 00:00:00 4.72083 C 4.87 g/m*3 4.72 C 0 km/h
261 22-02-2009 00:00:00 5.24667 C 5.76 g/m*3 5.25 C 0 km/h
262 23-02-2009 00:00:00 5.50083 C 4.72 g/m*3 5.5 C 0 km/h
263 24-02-2009 00:00:00 4.8325 C 4.1 g/m*3 4.83 C 0 km/h
264 25-02-2009 00:00:00 3.34286 C 4 g/m*3 3.34 C 0 km/h
265 26-02-2009 00:00:00 6.7377 C 4.3 g/m*3 6.74 C 0 km/h
266 27-02-2009 00:00:00 7.10417 C 5.5 g/m*3 7.1 C 0 km/h
267 28-02-2009 00:00:00 10.0375 C 5.89 g/m*3 10.04 C 0 km/h
268 01-03-2009 00:00:00 9.95 C 5.76 g/m*3 9.95 C 0 km/h
269 02-03-2009 00:00:00 7.98 C 5.85 g/m*3 7.98 C 0 km/h
270 03-03-2009 00:00:00 5.05583 C 3.94 g/m*3 5.06 C 0 km/h
271 04-03-2009 00:00:00 7.27917 C 3.96 g/m*3 7.28 C 0 km/h
272 05-03-2009 00:00:00 4.42917 C 5.35 g/m*3 4.43 C 0 km/h
273 06-03-2009 00:00:00 3.82417 C 5.35 g/m*3 3.82 C 0 km/h
274 07-03-2009 00:00:00 5.72167 C 3.85 g/m*3 5.72 C 0 km/h
275 08-03-2009 00:00:00 7.50833 C 5.49 g/m*3 7.51 C 0 km/h
Sensor: Nr:Datum:Temp:Abs-Feuchte:Windchill:Wind:
Aussen-T/F 276 09-03-2009 00:00:00 5.1521 C 4.17 g/m*3 5.15 C 0 km/h
277 10-03-2009 00:00:00 5.4275 C 4.82 g/m*3 5.43 C 0 km/h
278 11-03-2009 00:00:00 5.60417 C 4.35 g/m*3 5.6 C 0 km/h
279 12-03-2009 00:00:00 5.67083 C 5.13 g/m*3 5.67 C 0 km/h
280 13-03-2009 00:00:00 8.68167 C 5.63 g/m*3 8.68 C 0 km/h
281 14-03-2009 00:00:00 8.925 C 5.68 g/m*3 8.93 C 0 km/h
282 15-03-2009 00:00:00 9.41667 C 4.91 g/m*3 9.42 C 0 km/h
283 16-03-2009 00:00:00 8.23417 C 5.83 g/m*3 8.23 C 0 km/h
284 17-03-2009 00:00:00 7.73833 C 5.15 g/m*3 7.74 C 0 km/h
285 18-03-2009 00:00:00 5.82417 C 3.93 g/m*3 5.82 C 0 km/h
286 19-03-2009 00:00:00 5.41917 C 3.04 g/m*3 5.42 C 0 km/h
287 20-03-2009 00:00:00 4.59917 C 2.69 g/m*3 4.6 C 0 km/h
288 21-03-2009 00:00:00 5.07 C 2.81 g/m*3 5.07 C 0 km/h
289 22-03-2009 00:00:00 5.16639 C 3.79 g/m*3 5.17 C 0 km/h
290 23-03-2009 00:00:00 7.82917 C 4.91 g/m*3 7.83 C 0 km/h
291 24-03-2009 00:00:00 3.67333 C 4.24 g/m*3 3.67 C 0 km/h
292 25-03-2009 00:00:00 3.18417 C 4.69 g/m*3 3.18 C 0 km/h
293 26-03-2009 00:00:00 6.40083 C 5.48 g/m*3 6.4 C 0 km/h
294 27-03-2009 00:00:00 7.28333 C 5.31 g/m*3 7.28 C 0 km/h
295 28-03-2009 00:00:00 6.97583 C 5.39 g/m*3 6.98 C 0 km/h
296 29-03-2009 00:00:00 6.18435 C 4.96 g/m*3 6.18 C 0 km/h
297 30-03-2009 00:00:00 6.41833 C 4.78 g/m*3 6.42 C 0 km/h
298 31-03-2009 00:00:00 8.3325 C 4.49 g/m*3 8.33 C 0 km/h
299 01-04-2009 00:00:00 10.89833 C 4.57 g/m*3 10.9 C 0 km/h
300 02-04-2009 00:00:00 15.335 C 5.18 g/m*3 15.34 C 0 km/h
Sensor: Nr:Datum:Temp:Abs-Feuchte:Windchill:Wind:
Aussen-T/F 301 03-04-2009 00:00:00 15.87143 C 6.71 g/m*3 15.87 C 0 km/h
302 04-04-2009 00:00:00 16.68333 C 7.32 g/m*3 16.68 C 0 km/h
303 05-04-2009 00:00:00 14.9675 C 6.93 g/m*3 14.97 C 0 km/h
304 06-04-2009 00:00:00 14.72833 C 6.98 g/m*3 14.73 C 0 km/h
305 07-04-2009 00:00:00 14.57333 C 7.41 g/m*3 14.57 C 0 km/h
306 08-04-2009 00:00:00 14.20167 C 6.07 g/m*3 14.2 C 0 km/h
307 09-04-2009 00:00:00 16.28067 C 7.49 g/m*3 16.28 C 0 km/h
308 10-04-2009 00:00:00 18.55372 C 7.45 g/m*3 18.55 C 0 km/h
309 11-04-2009 00:00:00 17.3525 C 7.29 g/m*3 17.35 C 0 km/h
310 12-04-2009 00:00:00 16.79 C 8.39 g/m*3 16.79 C 0 km/h
311 13-04-2009 00:00:00 15.65167 C 9.22 g/m*3 15.65 C 0 km/h
312 14-04-2009 00:00:00 16.16167 C 8.27 g/m*3 16.16 C 0 km/h
313 15-04-2009 00:00:00 16.94202 C 7.01 g/m*3 16.94 C 0 km/h
314 16-04-2009 00:00:00 14.94583 C 6.79 g/m*3 14.95 C 0 km/h
315 17-04-2009 00:00:00 10.0825 C 8.69 g/m*3 10.08 C 0 km/h
316 18-04-2009 00:00:00 9.84 C 8.53 g/m*3 9.84 C 0 km/h
317 19-04-2009 00:00:00 14.95667 C 7.61 g/m*3 14.96 C 0 km/h
318 20-04-2009 00:00:00 15.16917 C 7.23 g/m*3 15.17 C 0 km/h
319 21-04-2009 00:00:00 15.74583 C 6.35 g/m*3 15.75 C 0 km/h
320 22-04-2009 00:00:00 13.68833 C 5.48 g/m*3 13.69 C 0 km/h
321 23-04-2009 00:00:00 11.645 C 5.16 g/m*3 11.65 C 0 km/h
322 24-04-2009 00:00:00 14.11333 C 5.96 g/m*3 14.11 C 0 km/h
323 25-04-2009 00:00:00 14.64833 C 7.16 g/m*3 14.65 C 0 km/h
324 26-04-2009 00:00:00 18.35 C 8.19 g/m*3 18.35 C 0 km/h
325 27-04-2009 00:00:00 14.89496 C 7.27 g/m*3 14.89 C 0 km/h
Sensor: Nr:Datum:Temp:Abs-Feuchte:Windchill:Wind:
Aussen-T/F 326 28-04-2009 00:00:00 11.07833 C 8.01 g/m*3 11.08 C 0 km/h
327 29-04-2009 00:00:00 11.9025 C 7.14 g/m*3 11.9 C 0 km/h
328 30-04-2009 00:00:00 12.85833 C 7.53 g/m*3 12.86 C 0 km/h
329 01-05-2009 00:00:00 16.25583 C 8.09 g/m*3 16.26 C 0 km/h
330 02-05-2009 00:00:00 17.60167 C 7.7 g/m*3 17.6 C 0 km/h
331 03-05-2009 00:00:00 14.58333 C 7.12 g/m*3 14.58 C 0 km/h
332 04-05-2009 00:00:00 11.88333 C 4.53 g/m*3 11.88 C 0 km/h
333 05-05-2009 00:00:00 10.50917 C 6.68 g/m*3 10.51 C 0 km/h
334 06-05-2009 00:00:00 13.85625 C 7.25 g/m*3 13.86 C 0 km/h
335 07-05-2009 00:00:00 16.47708 C 7.43 g/m*3 16.48 C 0 km/h
336 08-05-2009 00:00:00 16.58021 C 8.46 g/m*3 16.58 C 0 km/h
337 09-05-2009 00:00:00 14.3875 C 8.01 g/m*3 14.39 C 0 km/h
338 10-05-2009 00:00:00 17.72083 C 9.72 g/m*3 17.72 C 0 km/h
339 11-05-2009 00:00:00 13.57188 C 11.06 g/m*3 13.57 C 0 km/h
340 12-05-2009 00:00:00 11.83333 C 9.17 g/m*3 11.83 C 0 km/h
341 13-05-2009 00:00:00 15.51771 C 8.96 g/m*3 15.52 C 0 km/h
342 14-05-2009 00:00:00 16.00104 C 9.44 g/m*3 16 C 0 km/h
343 15-05-2009 00:00:00 15.12255 C 10.34 g/m*3 15.12 C 0 km/h
344 16-05-2009 00:00:00 13.80333 C 7.38 g/m*3 13.8 C 0 km/h
345 17-05-2009 00:00:00 17.02083 C 7.92 g/m*3 17.02 C 0 km/h
346 18-05-2009 00:00:00 16.95083 C 6.63 g/m*3 16.95 C 0 km/h
347 19-05-2009 00:00:00 16.49333 C 7.85 g/m*3 16.49 C 0 km/h
348 20-05-2009 00:00:00 18.70167 C 9.55 g/m*3 18.7 C 0 km/h
349 21-05-2009 00:00:00 19.21167 C 10.72 g/m*3 19.21 C 0 km/h
350 22-05-2009 00:00:00 17.97917 C 7.45 g/m*3 17.98 C 0 km/h
Sensor: Nr:Datum:Temp:Abs-Feuchte:Windchill:Wind:
Aussen-T/F 351 23-05-2009 00:00:00 18.72083 C 7.4 g/m*3 18.72 C 0 km/h
352 24-05-2009 00:00:00 22.53417 C 9.1 g/m*3 22.53 C 0 km/h
353 25-05-2009 00:00:00 23.49833 C 10.6 g/m*3 23.5 C 0 km/h
354 26-05-2009 00:00:00 19.86583 C 9.97 g/m*3 19.87 C 0 km/h
355 27-05-2009 00:00:00 14.4425 C 6.18 g/m*3 14.44 C 0 km/h
356 28-05-2009 00:00:00 15.5325 C 8.21 g/m*3 15.53 C 0 km/h
357 29-05-2009 00:00:00 17.81765 C 6.76 g/m*3 17.82 C 0 km/h
358 30-05-2009 00:00:00 18.43417 C 6.45 g/m*3 18.43 C 0 km/h
359 31-05-2009 00:00:00 20.3075 C 7.55 g/m*3 20.31 C 0 km/h
360 01-06-2009 00:00:00 19.42541 C 9.1 g/m*3 19.43 C 0 km/h
361 02-06-2009 00:00:00 19.91917 C 8.16 g/m*3 19.92 C 0 km/h
362 03-06-2009 00:00:00 16.3775 C 5.31 g/m*3 16.38 C 0 km/h
363 04-06-2009 00:00:00 13.435 C 4.59 g/m*3 13.44 C 0 km/h
364 05-06-2009 00:00:00 13.4075 C 5 g/m*3 13.41 C 0 km/h
365 06-06-2009 00:00:00 9.18333 C 7.41 g/m*3 9.18 C 0 km/h
366 07-06-2009 00:00:00 13.71083 C 8.43 g/m*3 13.71 C 0 km/h
367 08-06-2009 00:00:00 16.58667 C 7.38 g/m*3 16.59 C 0 km/h
368 09-06-2009 00:00:00 17.9275 C 9.37 g/m*3 17.93 C 0 km/h
369 10-06-2009 00:00:00 17.24454 C 8.99 g/m*3 17.24 C 0 km/h
370 11-06-2009 00:00:00 14.60417 C 9.26 g/m*3 14.6 C 0 km/h
371 12-06-2009 00:00:00 15.915 C 7.28 g/m*3 15.92 C 0 km/h
372 13-06-2009 00:00:00 18.29417 C 7.64 g/m*3 18.29 C 0 km/h
373 14-06-2009 00:00:00 20.3875 C 10.19 g/m*3 20.39 C 0 km/h
374 15-06-2009 00:00:00 16.76083 C 12.71 g/m*3 16.76 C 0 km/h
375 16-06-2009 00:00:00 16.58083 C 9.69 g/m*3 16.58 C 0 km/h
Sensor: Nr:Datum:Temp:Abs-Feuchte:Windchill:Wind:
Aussen-T/F 376 17-06-2009 00:00:00 19.89 C 9.38 g/m*3 19.89 C 0 km/h
377 18-06-2009 00:00:00 19.45417 C 10.3 g/m*3 19.45 C 0 km/h
378 19-06-2009 00:00:00 18.45583 C 7.96 g/m*3 18.46 C 0 km/h
379 20-06-2009 00:00:00 13.84583 C 7.89 g/m*3 13.85 C 0 km/h
380 21-06-2009 00:00:00 13.40167 C 8.61 g/m*3 13.4 C 0 km/h
381 22-06-2009 00:00:00 15.23697 C 7.62 g/m*3 15.24 C 0 km/h
382 23-06-2009 00:00:00 18.58583 C 7.92 g/m*3 18.59 C 0 km/h
383 24-06-2009 00:00:00 22.29167 C 7.85 g/m*3 22.29 C 0 km/h
384 25-06-2009 00:00:00 24.10583 C 9.67 g/m*3 24.11 C 0 km/h
385 26-06-2009 00:00:00 24.31083 C 10.7 g/m*3 24.31 C 0 km/h
386 27-06-2009 00:00:00 22.1625 C 12.54 g/m*3 22.16 C 0 km/h
387 28-06-2009 00:00:00 25.04417 C 11.78 g/m*3 25.04 C 0 km/h
388 29-06-2009 00:00:00 24.71583 C 12 g/m*3 24.72 C 0 km/h
389 30-06-2009 00:00:00 22.55083 C 13.98 g/m*3 22.55 C 0 km/h
390 01-07-2009 00:00:00 23.6175 C 13.73 g/m*3 23.62 C 0 km/h
391 02-07-2009 00:00:00 25.95917 C 12.87 g/m*3 25.96 C 0 km/h
392 03-07-2009 00:00:00 23.36083 C 13.72 g/m*3 23.36 C 0 km/h
393 04-07-2009 00:00:00 24.17479 C 11.83 g/m*3 24.17 C 0 km/h
394 05-07-2009 00:00:00 23.89917 C 11.07 g/m*3 23.9 C 0 km/h
395 06-07-2009 00:00:00 21.82333 C 11.98 g/m*3 21.82 C 0 km/h
396 07-07-2009 00:00:00 18.7625 C 10.11 g/m*3 18.76 C 0 km/h
397 08-07-2009 00:00:00 16.39 C 9.61 g/m*3 16.39 C 0 km/h
398 09-07-2009 00:00:00 16.38583 C 8.58 g/m*3 16.39 C 0 km/h
399 10-07-2009 00:00:00 15.17083 C 7.78 g/m*3 15.17 C 0 km/h
400 11-07-2009 00:00:00 17.55667 C 8.2 g/m*3 17.56 C 0 km/h
Sensor: Nr:Datum:Temp:Abs-Feuchte:Windchill:Wind:
Aussen-T/F 401 12-07-2009 00:00:00 19.3525 C 10.57 g/m*3 19.35 C 0 km/h
402 13-07-2009 00:00:00 21.76917 C 12.23 g/m*3 21.77 C 0 km/h
403 14-07-2009 00:00:00 23.4 C 13.46 g/m*3 23.4 C 0 km/h
404 15-07-2009 00:00:00 24.0475 C 10.2 g/m*3 24.05 C 0 km/h
405 16-07-2009 00:00:00 23.37479 C 9.98 g/m*3 23.37 C 0 km/h
406 17-07-2009 00:00:00 20.90917 C 9.78 g/m*3 20.91 C 0 km/h
407 18-07-2009 00:00:00 17.575 C 8.46 g/m*3 17.58 C 0 km/h
408 19-07-2009 00:00:00 17.92167 C 8.71 g/m*3 17.92 C 0 km/h
409 20-07-2009 00:00:00 19.82583 C 7.87 g/m*3 19.83 C 0 km/h
410 21-07-2009 00:00:00 23.22833 C 11.03 g/m*3 23.23 C 0 km/h
411 22-07-2009 00:00:00 25.10583 C 12 g/m*3 25.11 C 0 km/h
412 23-07-2009 00:00:00 22.65417 C 12.31 g/m*3 22.65 C 0 km/h
413 24-07-2009 00:00:00 20.33167 C 9.89 g/m*3 20.33 C 0 km/h
414 25-07-2009 00:00:00 18.03083 C 9.21 g/m*3 18.03 C 0 km/h
415 26-07-2009 00:00:00 19.94833 C 9.75 g/m*3 19.95 C 0 km/h
416 27-07-2009 00:00:00 20.60667 C 10.4 g/m*3 20.61 C 0 km/h
417 28-07-2009 00:00:00 20.41513 C 8.48 g/m*3 20.42 C 0 km/h
418 29-07-2009 00:00:00 21.77833 C 9.2 g/m*3 21.78 C 0 km/h
419 30-07-2009 00:00:00 21.10583 C 8.72 g/m*3 21.11 C 0 km/h
420 31-07-2009 00:00:00 20.32583 C 7.51 g/m*3 20.33 C 0 km/h
421 01-08-2009 00:00:00 22.455 C 8.67 g/m*3 22.46 C 0 km/h
422 02-08-2009 00:00:00 20.47167 C 10.91 g/m*3 20.47 C 0 km/h
423 03-08-2009 00:00:00 19.3075 C 9.46 g/m*3 19.31 C 0 km/h
424 04-08-2009 00:00:00 20.48917 C 8.95 g/m*3 20.49 C 0 km/h
425 05-08-2009 00:00:00 22.0275 C 8.17 g/m*3 22.03 C 0 km/h
Sensor: Nr:Datum:Temp:Abs-Feuchte:Windchill:Wind:
Aussen-T/F 426 06-08-2009 00:00:00 24.19667 C 9.51 g/m*3 24.2 C 0 km/h
427 07-08-2009 00:00:00 25.2075 C 10.12 g/m*3 25.21 C 0 km/h
428 08-08-2009 00:00:00 21.22583 C 12.28 g/m*3 21.23 C 0 km/h
429 09-08-2009 00:00:00 22.82101 C 12.15 g/m*3 22.82 C 0 km/h
430 10-08-2009 00:00:00 21.7025 C 11.79 g/m*3 21.7 C 0 km/h
431 11-08-2009 00:00:00 20.44 C 11.61 g/m*3 20.44 C 0 km/h
432 12-08-2009 00:00:00 20.9725 C 11.23 g/m*3 20.97 C 0 km/h
433 13-08-2009 00:00:00 18.55917 C 12.82 g/m*3 18.56 C 0 km/h
434 14-08-2009 00:00:00 19.44083 C 10.85 g/m*3 19.44 C 0 km/h
435 15-08-2009 00:00:00 21.37917 C 10.5 g/m*3 21.38 C 0 km/h
436 16-08-2009 00:00:00 23.84583 C 11 g/m*3 23.85 C 0 km/h
437 17-08-2009 00:00:00 23.615 C 11.27 g/m*3 23.62 C 0 km/h
438 18-08-2009 00:00:00 22.105 C 9.45 g/m*3 22.11 C 0 km/h
439 19-08-2009 00:00:00 23.76 C 10.14 g/m*3 23.76 C 0 km/h
440 20-08-2009 00:00:00 26.03167 C 11.39 g/m*3 26.03 C 0 km/h
441 21-08-2009 00:00:00 20.32185 C 10.69 g/m*3 20.32 C 0 km/h
442 22-08-2009 00:00:00 19.745 C 9.13 g/m*3 19.75 C 0 km/h
443 23-08-2009 00:00:00 20.0375 C 8.31 g/m*3 20.04 C 0 km/h
444 24-08-2009 00:00:00 22.19667 C 9.27 g/m*3 22.2 C 0 km/h
445 25-08-2009 00:00:00 23.11917 C 10.67 g/m*3 23.12 C 0 km/h
446 26-08-2009 00:00:00 21.68417 C 9.77 g/m*3 21.68 C 0 km/h
447 27-08-2009 00:00:00 23.10167 C 10.48 g/m*3 23.1 C 0 km/h
448 28-08-2009 00:00:00 21.60583 C 8.45 g/m*3 21.61 C 0 km/h
449 29-08-2009 00:00:00 16.21167 C 6.62 g/m*3 16.21 C 0 km/h
450 30-08-2009 00:00:00 16.655 C 6.94 g/m*3 16.66 C 0 km/h
Sensor: Nr:Datum:Temp:Abs-Feuchte:Windchill:Wind:
Aussen-T/F 451 31-08-2009 00:00:00 19.54667 C 7.6 g/m*3 19.55 C 0 km/h
452 01-09-2009 00:00:00 19.93167 C 10.19 g/m*3 19.93 C 0 km/h
453 02-09-2009 00:00:00 18.765 C 9.38 g/m*3 18.77 C 0 km/h
454 03-09-2009 00:00:00 17.39328 C 8.67 g/m*3 17.39 C 0 km/h
455 04-09-2009 00:00:00 14.56333 C 8.22 g/m*3 14.56 C 0 km/h
456 05-09-2009 00:00:00 15.10833 C 7.6 g/m*3 15.11 C 0 km/h
457 06-09-2009 00:00:00 14.74583 C 8.27 g/m*3 14.75 C 0 km/h
458 07-09-2009 00:00:00 17.63417 C 8.91 g/m*3 17.63 C 0 km/h
459 08-09-2009 00:00:00 19.88167 C 9.54 g/m*3 19.88 C 0 km/h
460 09-09-2009 00:00:00 19.7475 C 9.47 g/m*3 19.75 C 0 km/h
461 10-09-2009 00:00:00 18.43917 C 10.33 g/m*3 18.44 C 0 km/h
462 11-09-2009 00:00:00 17.6725 C 7.37 g/m*3 17.67 C 0 km/h
463 12-09-2009 00:00:00 16.99083 C 7.3 g/m*3 16.99 C 0 km/h
464 13-09-2009 00:00:00 14.23 C 8.62 g/m*3 14.23 C 0 km/h
465 14-09-2009 00:00:00 12.17417 C 10.1 g/m*3 12.17 C 0 km/h
466 15-09-2009 00:00:00 13.7563 C 10.75 g/m*3 13.76 C 0 km/h
467 16-09-2009 00:00:00 16.725 C 11.49 g/m*3 16.73 C 0 km/h
468 17-09-2009 00:00:00 18.47583 C 9.96 g/m*3 18.48 C 0 km/h
469 18-09-2009 00:00:00 18.26083 C 9.85 g/m*3 18.26 C 0 km/h
470 19-09-2009 00:00:00 20.78583 C 11.08 g/m*3 20.79 C 0 km/h
471 20-09-2009 00:00:00 19.92833 C 11.89 g/m*3 19.93 C 0 km/h
472 21-09-2009 00:00:00 18.85833 C 10.75 g/m*3 18.86 C 0 km/h
473 22-09-2009 00:00:00 17.215 C 9.52 g/m*3 17.22 C 0 km/h
474 23-09-2009 00:00:00 17.4225 C 9.72 g/m*3 17.42 C 0 km/h
475 24-09-2009 00:00:00 17.19 C 10.45 g/m*3 17.19 C 0 km/h
Sensor: Nr:Datum:Temp:Abs-Feuchte:Windchill:Wind:
Aussen-T/F 476 25-09-2009 00:00:00 15.16083 C 8.71 g/m*3 15.16 C 0 km/h
477 26-09-2009 00:00:00 14.56333 C 8.19 g/m*3 14.56 C 0 km/h
478 27-09-2009 00:00:00 14.64 C 8.22 g/m*3 14.64 C 0 km/h
479 28-09-2009 00:00:00 14.21583 C 8.47 g/m*3 14.22 C 0 km/h
480 29-09-2009 00:00:00 15.88319 C 8.68 g/m*3 15.88 C 0 km/h
481 30-09-2009 00:00:00 16.535 C 9.98 g/m*3 16.54 C 0 km/h
482 01-10-2009 00:00:00 14.71583 C 8.88 g/m*3 14.72 C 0 km/h
483 02-10-2009 00:00:00 11.32167 C 6.59 g/m*3 11.32 C 0 km/h
484 03-10-2009 00:00:00 11.72333 C 6.76 g/m*3 11.72 C 0 km/h
485 04-10-2009 00:00:00 13.54167 C 7.94 g/m*3 13.54 C 0 km/h
486 05-10-2009 00:00:00 12.4075 C 9.99 g/m*3 12.41 C 0 km/h
487 06-10-2009 00:00:00 16.13417 C 12.08 g/m*3 16.13 C 0 km/h
488 07-10-2009 00:00:00 19.57083 C 12.9 g/m*3 19.57 C 0 km/h
489 08-10-2009 00:00:00 16.41167 C 9.99 g/m*3 16.41 C 0 km/h
490 09-10-2009 00:00:00 11.88417 C 7.56 g/m*3 11.88 C 0 km/h
491 10-10-2009 00:00:00 13.34667 C 9.66 g/m*3 13.35 C 0 km/h
492 11-10-2009 00:00:00 12.35042 C 8.83 g/m*3 12.35 C 0 km/h
493 12-10-2009 00:00:00 10.9275 C 6.43 g/m*3 10.93 C 0 km/h
494 13-10-2009 00:00:00 9.24333 C 6.35 g/m*3 9.24 C 0 km/h
495 14-10-2009 00:00:00 4.27333 C 4.38 g/m*3 4.27 C 0 km/h
496 15-10-2009 00:00:00 3.45583 C 4.18 g/m*3 3.46 C 0 km/h
497 16-10-2009 00:00:00 6.41083 C 5.8 g/m*3 6.41 C 0 km/h
498 17-10-2009 00:00:00 8.52083 C 5.63 g/m*3 8.52 C 0 km/h
499 18-10-2009 00:00:00 7.3775 C 5.38 g/m*3 7.38 C 0 km/h
500 19-10-2009 00:00:00 4.59 C 4.71 g/m*3 4.59 C 0 km/h
Sensor: Nr:Datum:Temp:Abs-Feuchte:Windchill:Wind:
Aussen-T/F 501 20-10-2009 00:00:00 5.17083 C 4.82 g/m*3 5.17 C 0 km/h
502 21-10-2009 00:00:00 8.07333 C 5.02 g/m*3 8.07 C 0 km/h
503 22-10-2009 00:00:00 9.4 C 5.91 g/m*3 9.4 C 0 km/h
504 23-10-2009 00:00:00 8.34 C 7.02 g/m*3 8.34 C 0 km/h
505 24-10-2009 00:00:00 10.5084 C 7.81 g/m*3 10.51 C 0 km/h
506 25-10-2009 00:00:00 12.6096 C 8.4 g/m*3 12.61 C 0 km/h
507 26-10-2009 00:00:00 11.8875 C 7.56 g/m*3 11.89 C 0 km/h
508 27-10-2009 00:00:00 11.82417 C 7.63 g/m*3 11.82 C 0 km/h
509 28-10-2009 00:00:00 8.37917 C 7.06 g/m*3 8.38 C 0 km/h
510 29-10-2009 00:00:00 8.69333 C 7.48 g/m*3 8.69 C 0 km/h
511 30-10-2009 00:00:00 10.54083 C 7.59 g/m*3 10.54 C 0 km/h
512 31-10-2009 00:00:00 7.03083 C 5.82 g/m*3 7.03 C 0 km/h
513 01-11-2009 00:00:00 9.17333 C 6.74 g/m*3 9.17 C 0 km/h
514 02-11-2009 00:00:00 10.32333 C 8.29 g/m*3 10.32 C 0 km/h
515 03-11-2009 00:00:00 8.06167 C 6.19 g/m*3 8.06 C 0 km/h
516 04-11-2009 00:00:00 8.75 C 7.01 g/m*3 8.75 C 0 km/h
517 05-11-2009 00:00:00 9.29748 C 6.2 g/m*3 9.3 C 0 km/h
518 06-11-2009 00:00:00 9.43333 C 6.28 g/m*3 9.43 C 0 km/h
519 07-11-2009 00:00:00 8.11583 C 5.94 g/m*3 8.12 C 0 km/h
520 08-11-2009 00:00:00 6.9 C 6.33 g/m*3 6.9 C 0 km/h
521 09-11-2009 00:00:00 6.21167 C 6.26 g/m*3 6.21 C 0 km/h
522 10-11-2009 00:00:00 6.03 C 6.79 g/m*3 6.03 C 0 km/h
523 11-11-2009 00:00:00 6.2525 C 6.18 g/m*3 6.25 C 0 km/h
524 12-11-2009 00:00:00 4.66 C 6.06 g/m*3 4.66 C 0 km/h
525 13-11-2009 00:00:00 11.27583 C 8.27 g/m*3 11.28 C 0 km/h
Sensor: Nr:Datum:Temp:Abs-Feuchte:Windchill:Wind:
Aussen-T/F 526 14-11-2009 00:00:00 11.7125 C 7.87 g/m*3 11.71 C 0 km/h
527 15-11-2009 00:00:00 11.2125 C 6.89 g/m*3 11.21 C 0 km/h
528 16-11-2009 00:00:00 10.92667 C 8.53 g/m*3 10.93 C 0 km/h
529 17-11-2009 00:00:00 10.88235 C 8.48 g/m*3 10.88 C 0 km/h
530 18-11-2009 00:00:00 10.245 C 6.24 g/m*3 10.25 C 0 km/h
531 19-11-2009 00:00:00 9.77667 C 6.57 g/m*3 9.78 C 0 km/h
532 20-11-2009 00:00:00 7.87917 C 6.83 g/m*3 7.88 C 0 km/h
533 21-11-2009 00:00:00 11.67333 C 7.8 g/m*3 11.67 C 0 km/h
534 22-11-2009 00:00:00 11.84167 C 6.48 g/m*3 11.84 C 0 km/h
535 23-11-2009 00:00:00 10.33417 C 6.93 g/m*3 10.33 C 0 km/h
536 24-11-2009 00:00:00 11.89833 C 7.31 g/m*3 11.9 C 0 km/h
537 25-11-2009 00:00:00 12.0875 C 6.36 g/m*3 12.09 C 0 km/h
538 26-11-2009 00:00:00 9.98917 C 5.73 g/m*3 9.99 C 0 km/h
539 27-11-2009 00:00:00 9.0425 C 5.58 g/m*3 9.04 C 0 km/h
540 28-11-2009 00:00:00 8.79 C 5.95 g/m*3 8.79 C 0 km/h
541 29-11-2009 00:00:00 9.41597 C 6.1 g/m*3 9.42 C 0 km/h
542 30-11-2009 00:00:00 6.46 C 6.32 g/m*3 6.46 C 0 km/h
543 01-12-2009 00:00:00 5.65583 C 5.93 g/m*3 5.66 C 0 km/h
544 02-12-2009 00:00:00 5.96 C 5.22 g/m*3 5.96 C 0 km/h
545 03-12-2009 00:00:00 8.53667 C 6.07 g/m*3 8.54 C 0 km/h
546 04-12-2009 00:00:00 4.73917 C 4.37 g/m*3 4.74 C 0 km/h
547 05-12-2009 00:00:00 5.3975 C 5.13 g/m*3 5.4 C 0 km/h
548 06-12-2009 00:00:00 9.83 C 7.53 g/m*3 9.83 C 0 km/h
549 07-12-2009 00:00:00 5.59917 C 6.01 g/m*3 5.6 C 0 km/h
550 08-12-2009 00:00:00 6.95833 C 6.27 g/m*3 6.96 C 0 km/h
Sensor: Nr:Datum:Temp:Abs-Feuchte:Windchill:Wind:
Aussen-T/F 551 09-12-2009 00:00:00 7.2525 C 6.19 g/m*3 7.25 C 0 km/h
552 10-12-2009 00:00:00 8.78583 C 6.99 g/m*3 8.79 C 0 km/h
553 11-12-2009 00:00:00 6.665 C 6.16 g/m*3 6.67 C 0 km/h
554 12-12-2009 00:00:00 3.47833 C 5.29 g/m*3 3.48 C 0 km/h
555 13-12-2009 00:00:00 1.50924 C 3.54 g/m*3 1.51 C 0 km/h
556 14-12-2009 00:00:00 -0.80667 C 2.67 g/m*3 -0.81 C 0 km/h
557 15-12-2009 00:00:00 -0.50083 C 2.88 g/m*3 -0.5 C 0 km/h
558 16-12-2009 00:00:00 -1.19917 C 2.79 g/m*3 -1.2 C 0 km/h
559 17-12-2009 00:00:00 -4.445 C 2.62 g/m*3 -4.45 C 0 km/h
560 18-12-2009 00:00:00 -5.04417 C 2.34 g/m*3 -5.04 C 0 km/h
561 19-12-2009 00:00:00 -12.79 C 1.12 g/m*3 -12.79 C 0 km/h
562 20-12-2009 00:00:00 -8.03917 C 1.87 g/m*3 -8.04 C 0 km/h
563 21-12-2009 00:00:00 -2.18417 C 3.25 g/m*3 -2.18 C 0 km/h
564 22-12-2009 00:00:00 2.7175 C 5.09 g/m*3 2.72 C 0 km/h
565 23-12-2009 00:00:00 0.49333 C 4.68 g/m*3 0.49 C 0 km/h
566 24-12-2009 00:00:00 2.31333 C 5.15 g/m*3 2.31 C 0 km/h
567 25-12-2009 00:00:00 4.38824 C 5.08 g/m*3 4.39 C 0 km/h
568 26-12-2009 00:00:00 2.04583 C 4.45 g/m*3 2.05 C 0 km/h
569 27-12-2009 00:00:00 0.5475 C 4.38 g/m*3 0.55 C 0 km/h
570 28-12-2009 00:00:00 3.1425 C 4.49 g/m*3 3.14 C 0 km/h
571 29-12-2009 00:00:00 0.4625 C 4.61 g/m*3 0.46 C 0 km/h
572 30-12-2009 00:00:00 7.05667 C 7.27 g/m*3 7.06 C 0 km/h
573 31-12-2009 00:00:00 5.32667 C 6.59 g/m*3 5.33 C 0 km/h
574 01-01-2010 00:00:00 -0.1725 C 4.38 g/m*3 -0.17 C 0 km/h
575 02-01-2010 00:00:00 -1.51083 C 3.34 g/m*3 -1.51 C 0 km/h
Sensor: Nr:Datum:Temp:Abs-Feuchte:Windchill:Wind:
Aussen-T/F 576 03-01-2010 00:00:00 -1.79667 C 3.45 g/m*3 -1.8 C 0 km/h
577 04-01-2010 00:00:00 -5.24083 C 2.41 g/m*3 -5.24 C 0 km/h
578 05-01-2010 00:00:00 -8.00083 C 2.22 g/m*3 -8 C 0 km/h
579 06-01-2010 00:00:00 -6.88917 C 2.25 g/m*3 -6.89 C 0 km/h
580 07-01-2010 00:00:00 -3.75966 C 2.79 g/m*3 -3.76 C 0 km/h
581 08-01-2010 00:00:00 -4.82167 C 2.54 g/m*3 -4.82 C 0 km/h
582 09-01-2010 00:00:00 -2.655 C 3.05 g/m*3 -2.66 C 0 km/h
583 10-01-2010 00:00:00 -1.87083 C 3.27 g/m*3 -1.87 C 0 km/h
584 11-01-2010 00:00:00 -1.42833 C 3.62 g/m*3 -1.43 C 0 km/h
585 12-01-2010 00:00:00 -1.65833 C 3.4 g/m*3 -1.66 C 0 km/h
586 13-01-2010 00:00:00 -2.2325 C 2.99 g/m*3 -2.23 C 0 km/h
587 14-01-2010 00:00:00 0.35417 C 3.98 g/m*3 0.35 C 0 km/h
588 15-01-2010 00:00:00 0.87333 C 4.07 g/m*3 0.87 C 0 km/h
589 16-01-2010 00:00:00 -0.11833 C 3.75 g/m*3 -0.12 C 0 km/h
590 17-01-2010 00:00:00 2.09667 C 5.1 g/m*3 2.1 C 0 km/h
591 18-01-2010 00:00:00 3.38333 C 5.07 g/m*3 3.38 C 0 km/h
592 19-01-2010 00:00:00 2.24583 C 5.1 g/m*3 2.25 C 0 km/h
593 20-01-2010 00:00:00 1.97417 C 4.66 g/m*3 1.97 C 0 km/h
594 21-01-2010 00:00:00 2.45126 C 4.02 g/m*3 2.45 C 0 km/h
595 22-01-2010 00:00:00 2.93667 C 4.24 g/m*3 2.94 C 0 km/h
596 23-01-2010 00:00:00 -0.41333 C 3.36 g/m*3 -0.41 C 0 km/h
597 24-01-2010 00:00:00 0.27167 C 4.06 g/m*3 0.27 C 0 km/h
598 25-01-2010 00:00:00 0.01667 C 4.19 g/m*3 0.02 C 0 km/h
599 26-01-2010 00:00:00 -3.325 C 2.8 g/m*3 -3.33 C 0 km/h
600 27-01-2010 00:00:00 -5.54083 C 2.18 g/m*3 -5.54 C 0 km/h
Sensor: Nr:Datum:Temp:Abs-Feuchte:Windchill:Wind:
Aussen-T/F 601 28-01-2010 00:00:00 1.20667 C 4.04 g/m*3 1.21 C 0 km/h
602 29-01-2010 00:00:00 1.39083 C 4.5 g/m*3 1.39 C 0 km/h
603 30-01-2010 00:00:00 -1.54583 C 3.39 g/m*3 -1.55 C 0 km/h
604 31-01-2010 00:00:00 -1.62333 C 3.2 g/m*3 -1.62 C 0 km/h
605 01-02-2010 00:00:00 0.20167 C 3.69 g/m*3 0.2 C 0 km/h
606 02-02-2010 00:00:00 0.69916 C 4 g/m*3 0.7 C 0 km/h
607 03-02-2010 00:00:00 2.28899 C 5.05 g/m*3 2.29 C 0 km/h
608 04-02-2010 00:00:00 4.17018 C 5.55 g/m*3 4.17 C 0 km/h
609 05-02-2010 00:00:00 3.29649 C 4.9 g/m*3 3.3 C 0 km/h
610 06-02-2010 00:00:00 4.55172 C 5.47 g/m*3 4.55 C 0 km/h
611 07-02-2010 00:00:00 4.17018 C 5.02 g/m*3 4.17 C 0 km/h
612 08-02-2010 00:00:00 -0.75 C 2.85 g/m*3 -0.75 C 0 km/h
613 09-02-2010 00:00:00 -3.74483 C 2.17 g/m*3 -3.74 C 0 km/h
614 10-02-2010 00:00:00 -4.8 C 2.32 g/m*3 -4.8 C 0 km/h
615 11-02-2010 00:00:00 -3.79828 C 2.62 g/m*3 -3.8 C 0 km/h
616 12-02-2010 00:00:00 -2.14737 C 2.95 g/m*3 -2.15 C 0 km/h
617 13-02-2010 00:00:00 -2.57414 C 2.82 g/m*3 -2.57 C 0 km/h
618 14-02-2010 00:00:00 -2.13621 C 3.1 g/m*3 -2.14 C 0 km/h
619 15-02-2010 00:00:00 -1.12632 C 3.21 g/m*3 -1.13 C 0 km/h
620 16-02-2010 00:00:00 -1.16379 C 3.02 g/m*3 -1.16 C 0 km/h
621 17-02-2010 00:00:00 -1.61754 C 3.18 g/m*3 -1.62 C 0 km/h
622 18-02-2010 00:00:00 3.2569 C 4.56 g/m*3 3.26 C 0 km/h
623 19-02-2010 00:00:00 3.59375 C 4.12 g/m*3 3.59 C 0 km/h
624 20-02-2010 00:00:00 1.69333 C 3.53 g/m*3 1.69 C 0 km/h
625 21-02-2010 00:00:00 2.87833 C 4.25 g/m*3 2.88 C 0 km/h
Sensor: Nr:Datum:Temp:Abs-Feuchte:Windchill:Wind:
Aussen-T/F 626 22-02-2010 00:00:00 6.76417 C 5.24 g/m*3 6.76 C 0 km/h
627 23-02-2010 00:00:00 9.7875 C 7.07 g/m*3 9.79 C 0 km/h
628 24-02-2010 00:00:00 9.55 C 6.5 g/m*3 9.55 C 0 km/h
629 25-02-2010 00:00:00 9.58 C 5.92 g/m*3 9.58 C 0 km/h
630 26-02-2010 00:00:00 8.62667 C 5.33 g/m*3 8.63 C 0 km/h
631 27-02-2010 00:00:00 8.4025 C 4.07 g/m*3 8.4 C 0 km/h
632 28-02-2010 00:00:00 8.30667 C 5.5 g/m*3 8.31 C 0 km/h
633 01-03-2010 00:00:00 5.40917 C 3.85 g/m*3 5.41 C 0 km/h
634 02-03-2010 00:00:00 3.135 C 3.87 g/m*3 3.14 C 0 km/h
635 03-03-2010 00:00:00 2.9925 C 3.33 g/m*3 2.99 C 0 km/h
636 04-03-2010 00:00:00 2.47395 C 2.67 g/m*3 2.47 C 0 km/h
637 05-03-2010 00:00:00 0.77667 C 2.41 g/m*3 0.78 C 0 km/h
638 06-03-2010 00:00:00 -0.47083 C 3.38 g/m*3 -0.47 C 0 km/h
639 07-03-2010 00:00:00 -1.6825 C 2.27 g/m*3 -1.68 C 0 km/h
640 08-03-2010 00:00:00 -1.21083 C 1.92 g/m*3 -1.21 C 0 km/h
641 09-03-2010 00:00:00 -0.87167 C 1.76 g/m*3 -0.87 C 0 km/h
642 10-03-2010 00:00:00 1.41667 C 1.75 g/m*3 1.42 C 0 km/h
643 11-03-2010 00:00:00 0.40167 C 2.56 g/m*3 0.4 C 0 km/h
644 12-03-2010 00:00:00 1.61167 C 3.86 g/m*3 1.61 C 0 km/h
645 13-03-2010 00:00:00 4.36583 C 4.23 g/m*3 4.37 C 0 km/h
646 14-03-2010 00:00:00 5.79833 C 4.06 g/m*3 5.8 C 0 km/h
647 15-03-2010 00:00:00 6.445 C 5.04 g/m*3 6.45 C 0 km/h
648 16-03-2010 00:00:00 6.08067 C 5.63 g/m*3 6.08 C 0 km/h
649 17-03-2010 00:00:00 6.69417 C 4.48 g/m*3 6.69 C 0 km/h
650 18-03-2010 00:00:00 10.12333 C 4.54 g/m*3 10.12 C 0 km/h
Sensor: Nr:Datum:Temp:Abs-Feuchte:Windchill:Wind:
Aussen-T/F 651 19-03-2010 00:00:00 15.0225 C 4.66 g/m*3 15.02 C 0 km/h
652 20-03-2010 00:00:00 14.37667 C 8.46 g/m*3 14.38 C 0 km/h
653 21-03-2010 00:00:00 11.23667 C 8.65 g/m*3 11.24 C 0 km/h
654 22-03-2010 00:00:00 9.7575 C 7.03 g/m*3 9.76 C 0 km/h
655 23-03-2010 00:00:00 8.94 C 6.12 g/m*3 8.94 C 0 km/h
656 24-03-2010 00:00:00 11.9975 C 6.24 g/m*3 12 C 0 km/h
657 25-03-2010 00:00:00 14.27083 C 6.52 g/m*3 14.27 C 0 km/h
658 26-03-2010 00:00:00 10.0325 C 7.02 g/m*3 10.03 C 0 km/h
659 27-03-2010 00:00:00 9.34333 C 5.7 g/m*3 9.34 C 0 km/h
660 28-03-2010 00:00:00 9.93478 C 6.19 g/m*3 9.93 C 0 km/h
661 29-03-2010 00:00:00 11.88167 C 8.04 g/m*3 11.88 C 0 km/h
662 30-03-2010 00:00:00 12.70672 C 6.43 g/m*3 12.71 C 0 km/h
663 31-03-2010 00:00:00 8.18667 C 4.45 g/m*3 8.19 C 0 km/h
664 01-04-2010 00:00:00 5.84333 C 3.76 g/m*3 5.84 C 0 km/h
665 02-04-2010 00:00:00 6.48583 C 4.37 g/m*3 6.49 C 0 km/h
666 03-04-2010 00:00:00 9.73667 C 5.47 g/m*3 9.74 C 0 km/h
667 04-04-2010 00:00:00 8.98833 C 5.25 g/m*3 8.99 C 0 km/h
668 05-04-2010 00:00:00 9.15083 C 4.56 g/m*3 9.15 C 0 km/h
669 06-04-2010 00:00:00 10.38167 C 4.41 g/m*3 10.38 C 0 km/h
670 07-04-2010 00:00:00 13.61167 C 5.07 g/m*3 13.61 C 0 km/h
671 08-04-2010 00:00:00 12.375 C 6.96 g/m*3 12.38 C 0 km/h
672 09-04-2010 00:00:00 11.49917 C 5.91 g/m*3 11.5 C 0 km/h
673 10-04-2010 00:00:00 11.3575 C 4.66 g/m*3 11.36 C 0 km/h
674 11-04-2010 00:00:00 7.86667 C 4.35 g/m*3 7.87 C 0 km/h
675 12-04-2010 00:00:00 7.44958 C 5.35 g/m*3 7.45 C 0 km/h
Sensor: Nr:Datum:Temp:Abs-Feuchte:Windchill:Wind:
Aussen-T/F 676 13-04-2010 00:00:00 11.85583 C 6.16 g/m*3 11.86 C 0 km/h
677 14-04-2010 00:00:00 11.76417 C 4.66 g/m*3 11.76 C 0 km/h
678 15-04-2010 00:00:00 11.8575 C 5 g/m*3 11.86 C 0 km/h
679 16-04-2010 00:00:00 9.71583 C 4.32 g/m*3 9.72 C 0 km/h
680 17-04-2010 00:00:00 11.1225 C 4.54 g/m*3 11.12 C 0 km/h
681 18-04-2010 00:00:00 13.27917 C 4.52 g/m*3 13.28 C 0 km/h
682 19-04-2010 00:00:00 11.18333 C 5.12 g/m*3 11.18 C 0 km/h
683 20-04-2010 00:00:00 11.13833 C 5.11 g/m*3 11.14 C 0 km/h
684 21-04-2010 00:00:00 7.34417 C 3.84 g/m*3 7.34 C 0 km/h
685 22-04-2010 00:00:00 8.35333 C 3.82 g/m*3 8.35 C 0 km/h
686 23-04-2010 00:00:00 11.44917 C 4.09 g/m*3 11.45 C 0 km/h
687 24-04-2010 00:00:00 14.91167 C 4.56 g/m*3 14.91 C 0 km/h
688 25-04-2010 00:00:00 17.1075 C 5.25 g/m*3 17.11 C 0 km/h
689 26-04-2010 00:00:00 15.72269 C 7.07 g/m*3 15.72 C 0 km/h
690 27-04-2010 00:00:00 15.50417 C 6.31 g/m*3 15.5 C 0 km/h
691 28-04-2010 00:00:00 16.8925 C 6.33 g/m*3 16.89 C 0 km/h
692 29-04-2010 00:00:00 19.21417 C 6.68 g/m*3 19.21 C 0 km/h
693 30-04-2010 00:00:00 18.69583 C 7.11 g/m*3 18.7 C 0 km/h
694 01-05-2010 00:00:00 15.09917 C 6.78 g/m*3 15.1 C 0 km/h
695 02-05-2010 00:00:00 13.48583 C 7.64 g/m*3 13.49 C 0 km/h
696 03-05-2010 00:00:00 10.01667 C 6.94 g/m*3 10.02 C 0 km/h
697 04-05-2010 00:00:00 9.78833 C 5.53 g/m*3 9.79 C 0 km/h
698 05-05-2010 00:00:00 10.09083 C 3.78 g/m*3 10.09 C 0 km/h
699 06-05-2010 00:00:00 6.68167 C 6.78 g/m*3 6.68 C 0 km/h
700 07-05-2010 00:00:00 6.49417 C 6.66 g/m*3 6.49 C 0 km/h
Sensor: Nr:Datum:Temp:Abs-Feuchte:Windchill:Wind:
Aussen-T/F 701 08-05-2010 00:00:00 11.06218 C 6.38 g/m*3 11.06 C 0 km/h
702 09-05-2010 00:00:00 12.575 C 6.93 g/m*3 12.58 C 0 km/h
703 10-05-2010 00:00:00 11.99917 C 6.67 g/m*3 12 C 0 km/h
704 11-05-2010 00:00:00 11.53167 C 6.84 g/m*3 11.53 C 0 km/h
705 12-05-2010 00:00:00 8.62333 C 6.33 g/m*3 8.62 C 0 km/h
706 13-05-2010 00:00:00 8.07667 C 6.31 g/m*3 8.08 C 0 km/h
707 14-05-2010 00:00:00 8.97333 C 7.22 g/m*3 8.97 C 0 km/h
708 15-05-2010 00:00:00 10.6825 C 5.92 g/m*3 10.68 C 0 km/h
709 16-05-2010 00:00:00 13.32917 C 5.32 g/m*3 13.33 C 0 km/h
710 17-05-2010 00:00:00 10.56917 C 7.13 g/m*3 10.57 C 0 km/h
711 18-05-2010 00:00:00 11.44333 C 6.07 g/m*3 11.44 C 0 km/h
712 19-05-2010 00:00:00 10.30583 C 6.32 g/m*3 10.31 C 0 km/h
713 20-05-2010 00:00:00 12.64034 C 6.31 g/m*3 12.64 C 0 km/h
714 21-05-2010 00:00:00 16.54333 C 7.66 g/m*3 16.54 C 0 km/h
715 22-05-2010 00:00:00 18.32583 C 7.75 g/m*3 18.33 C 0 km/h
716 23-05-2010 00:00:00 20.32083 C 8.65 g/m*3 20.32 C 0 km/h
717 24-05-2010 00:00:00 21.23 C 8.94 g/m*3 21.23 C 0 km/h
718 25-05-2010 00:00:00 20.64583 C 7.99 g/m*3 20.65 C 0 km/h
719 26-05-2010 00:00:00 15.41917 C 9.07 g/m*3 15.42 C 0 km/h
720 27-05-2010 00:00:00 15.6175 C 8.18 g/m*3 15.62 C 0 km/h
721 28-05-2010 00:00:00 17.3075 C 7.94 g/m*3 17.31 C 0 km/h
722 29-05-2010 00:00:00 16.34 C 7.23 g/m*3 16.34 C 0 km/h
723 30-05-2010 00:00:00 14.5975 C 8.93 g/m*3 14.6 C 0 km/h
724 31-05-2010 00:00:00 11.56667 C 8.16 g/m*3 11.57 C 0 km/h
725 01-06-2010 00:00:00 16.01833 C 8.41 g/m*3 16.02 C 0 km/h
Sensor: Nr:Datum:Temp:Abs-Feuchte:Windchill:Wind:
Aussen-T/F 726 02-06-2010 00:00:00 17.66471 C 7.79 g/m*3 17.66 C 0 km/h
727 03-06-2010 00:00:00 20.49083 C 7.88 g/m*3 20.49 C 0 km/h
728 04-06-2010 00:00:00 21.43 C 7.91 g/m*3 21.43 C 0 km/h
729 05-06-2010 00:00:00 22.97667 C 8.82 g/m*3 22.98 C 0 km/h
730 06-06-2010 00:00:00 20.91333 C 11.1 g/m*3 20.91 C 0 km/h
731 07-06-2010 00:00:00 19.58833 C 9.05 g/m*3 19.59 C 0 km/h
732 08-06-2010 00:00:00 19.76833 C 9.52 g/m*3 19.77 C 0 km/h
733 09-06-2010 00:00:00 22.5625 C 11.34 g/m*3 22.56 C 0 km/h
734 10-06-2010 00:00:00 22.76417 C 13.55 g/m*3 22.76 C 0 km/h
735 11-06-2010 00:00:00 22.89167 C 11.59 g/m*3 22.89 C 0 km/h
736 12-06-2010 00:00:00 18.84917 C 10.25 g/m*3 18.85 C 0 km/h
737 13-06-2010 00:00:00 18.25083 C 7.8 g/m*3 18.25 C 0 km/h
738 14-06-2010 00:00:00 19.76667 C 7.8 g/m*3 19.77 C 0 km/h
739 15-06-2010 00:00:00 18.9 C 8.06 g/m*3 18.9 C 0 km/h
740 16-06-2010 00:00:00 18.82833 C 6.18 g/m*3 18.83 C 0 km/h
741 17-06-2010 00:00:00 15.08583 C 9.23 g/m*3 15.09 C 0 km/h
742 18-06-2010 00:00:00 15.2325 C 9.35 g/m*3 15.23 C 0 km/h
743 19-06-2010 00:00:00 14.2725 C 6.27 g/m*3 14.27 C 0 km/h
744 20-06-2010 00:00:00 13.20333 C 6.8 g/m*3 13.2 C 0 km/h
745 21-06-2010 00:00:00 14.11083 C 6.37 g/m*3 14.11 C 0 km/h
746 22-06-2010 00:00:00 17.38667 C 7.03 g/m*3 17.39 C 0 km/h
747 23-06-2010 00:00:00 19.75917 C 8.12 g/m*3 19.76 C 0 km/h
748 24-06-2010 00:00:00 22.54833 C 8.68 g/m*3 22.55 C 0 km/h
749 25-06-2010 00:00:00 23.37 C 8.65 g/m*3 23.37 C 0 km/h
750 26-06-2010 00:00:00 23.635 C 8.77 g/m*3 23.64 C 0 km/h
Sensor: Nr:Datum:Temp:Abs-Feuchte:Windchill:Wind:
Aussen-T/F 751 27-06-2010 00:00:00 24.49417 C 9.01 g/m*3 24.49 C 0 km/h
752 28-06-2010 00:00:00 25.25546 C 9.1 g/m*3 25.26 C 0 km/h
753 29-06-2010 00:00:00 24.86167 C 9.83 g/m*3 24.86 C 0 km/h
754 30-06-2010 00:00:00 24.6175 C 10.06 g/m*3 24.62 C 0 km/h
755 01-07-2010 00:00:00 25.8425 C 9.72 g/m*3 25.84 C 0 km/h
756 02-07-2010 00:00:00 26.96667 C 9.63 g/m*3 26.97 C 0 km/h
757 03-07-2010 00:00:00 26.33 C 11.31 g/m*3 26.33 C 0 km/h
758 04-07-2010 00:00:00 26.44833 C 12.05 g/m*3 26.45 C 0 km/h
759 05-07-2010 00:00:00 22.02083 C 9.04 g/m*3 22.02 C 0 km/h
760 06-07-2010 00:00:00 20.17833 C 8.34 g/m*3 20.18 C 0 km/h
761 07-07-2010 00:00:00 22.53417 C 8.16 g/m*3 22.53 C 0 km/h
762 08-07-2010 00:00:00 26.43417 C 8.69 g/m*3 26.43 C 0 km/h
763 09-07-2010 00:00:00 27.51333 C 9.42 g/m*3 27.51 C 0 km/h
764 10-07-2010 00:00:00 29.25667 C 10.76 g/m*3 29.26 C 0 km/h
765 11-07-2010 00:00:00 28.48319 C 12.85 g/m*3 28.48 C 0 km/h
766 12-07-2010 00:00:00 27.1175 C 11.1 g/m*3 27.12 C 0 km/h
767 13-07-2010 00:00:00 25.36083 C 10.39 g/m*3 25.36 C 0 km/h
768 14-07-2010 00:00:00 25.98917 C 11.73 g/m*3 25.99 C 0 km/h
769 15-07-2010 00:00:00 22.6525 C 8.81 g/m*3 22.65 C 0 km/h
770 16-07-2010 00:00:00 23.97667 C 8.47 g/m*3 23.98 C 0 km/h
771 17-07-2010 00:00:00 21.99167 C 10.18 g/m*3 21.99 C 0 km/h
772 18-07-2010 00:00:00 21.73833 C 7.35 g/m*3 21.74 C 0 km/h
773 19-07-2010 00:00:00 23.63167 C 8.01 g/m*3 23.63 C 0 km/h
774 20-07-2010 00:00:00 25.03833 C 8.46 g/m*3 25.04 C 0 km/h
775 21-07-2010 00:00:00 24.73833 C 9.31 g/m*3 24.74 C 0 km/h
Sensor: Nr:Datum:Temp:Abs-Feuchte:Windchill:Wind:
Aussen-T/F 776 22-07-2010 00:00:00 21.34917 C 11.61 g/m*3 21.35 C 0 km/h
777 23-07-2010 00:00:00 20.17059 C 11.52 g/m*3 20.17 C 0 km/h
778 24-07-2010 00:00:00 19.00667 C 9.15 g/m*3 19.01 C 0 km/h
779 25-07-2010 00:00:00 17.26833 C 7.8 g/m*3 17.27 C 0 km/h
780 26-07-2010 00:00:00 17.2925 C 11.46 g/m*3 17.29 C 0 km/h
781 27-07-2010 00:00:00 19.815 C 10.06 g/m*3 19.82 C 0 km/h
782 28-07-2010 00:00:00 20.5075 C 11.17 g/m*3 20.51 C 0 km/h
783 29-07-2010 00:00:00 16.32417 C 11.42 g/m*3 16.32 C 0 km/h
784 30-07-2010 00:00:00 19.665 C 9.34 g/m*3 19.67 C 0 km/h
785 31-07-2010 00:00:00 20.62417 C 9.08 g/m*3 20.62 C 0 km/h
786 01-08-2010 00:00:00 22.90833 C 11.98 g/m*3 22.91 C 0 km/h
787 02-08-2010 00:00:00 19.60917 C 11.25 g/m*3 19.61 C 0 km/h
788 03-08-2010 00:00:00 18.94167 C 10.12 g/m*3 18.94 C 0 km/h
789 04-08-2010 00:00:00 19.62269 C 9.16 g/m*3 19.62 C 0 km/h
790 05-08-2010 00:00:00 18.49417 C 10 g/m*3 18.49 C 0 km/h
791 06-08-2010 00:00:00 19.04667 C 8.08 g/m*3 19.05 C 0 km/h
792 07-08-2010 00:00:00 19.46583 C 7.91 g/m*3 19.47 C 0 km/h
793 08-08-2010 00:00:00 18.485 C 11.68 g/m*3 18.49 C 0 km/h
794 09-08-2010 00:00:00 19.515 C 10.42 g/m*3 19.52 C 0 km/h
795 10-08-2010 00:00:00 22.13583 C 9.74 g/m*3 22.14 C 0 km/h
796 11-08-2010 00:00:00 20.32833 C 12.64 g/m*3 20.33 C 0 km/h
797 12-08-2010 00:00:00 19.10917 C 11.28 g/m*3 19.11 C 0 km/h
798 13-08-2010 00:00:00 18.77833 C 9.07 g/m*3 18.78 C 0 km/h
799 14-08-2010 00:00:00 19.9675 C 9.59 g/m*3 19.97 C 0 km/h
800 15-08-2010 00:00:00 16.88667 C 11.8 g/m*3 16.89 C 0 km/h
Sensor: Nr:Datum:Temp:Abs-Feuchte:Windchill:Wind:
Aussen-T/F 801 16-08-2010 00:00:00 17.07479 C 11.15 g/m*3 17.07 C 0 km/h
802 17-08-2010 00:00:00 16.06667 C 10.71 g/m*3 16.07 C 0 km/h
803 18-08-2010 00:00:00 18.40917 C 9.91 g/m*3 18.41 C 0 km/h
804 19-08-2010 00:00:00 18.88917 C 8.2 g/m*3 18.89 C 0 km/h
805 20-08-2010 00:00:00 20.42605 C 9.9 g/m*3 20.43 C 0 km/h
806 21-08-2010 00:00:00 23.76417 C 11.32 g/m*3 23.76 C 0 km/h
807 22-08-2010 00:00:00 23.01667 C 12.14 g/m*3 23.02 C 0 km/h
808 23-08-2010 00:00:00 21.205 C 13.12 g/m*3 21.21 C 0 km/h
809 24-08-2010 00:00:00 19.27083 C 7.86 g/m*3 19.27 C 0 km/h
810 25-08-2010 00:00:00 17.61917 C 7.68 g/m*3 17.62 C 0 km/h
811 26-08-2010 00:00:00 20.68083 C 11.52 g/m*3 20.68 C 0 km/h
812 27-08-2010 00:00:00 18.37667 C 13.18 g/m*3 18.38 C 0 km/h
813 28-08-2010 00:00:00 14.0675 C 8.89 g/m*3 14.07 C 0 km/h
814 29-08-2010 00:00:00 13.03167 C 8.58 g/m*3 13.03 C 0 km/h
815 30-08-2010 00:00:00 12.5675 C 8.53 g/m*3 12.57 C 0 km/h
816 31-08-2010 00:00:00 15.42917 C 8.4 g/m*3 15.43 C 0 km/h
817 01-09-2010 00:00:00 14.82437 C 8.4 g/m*3 14.82 C 0 km/h
818 02-09-2010 00:00:00 14.95333 C 8.79 g/m*3 14.95 C 0 km/h
819 03-09-2010 00:00:00 15.91417 C 9.06 g/m*3 15.91 C 0 km/h
820 04-09-2010 00:00:00 16.71417 C 8.43 g/m*3 16.71 C 0 km/h
821 05-09-2010 00:00:00 15.205 C 7.52 g/m*3 15.21 C 0 km/h
822 06-09-2010 00:00:00 15.675 C 6.76 g/m*3 15.68 C 0 km/h
823 07-09-2010 00:00:00 13.36083 C 8.36 g/m*3 13.36 C 0 km/h
824 08-09-2010 00:00:00 15.545 C 10.94 g/m*3 15.55 C 0 km/h
825 09-09-2010 00:00:00 16.20583 C 9.61 g/m*3 16.21 C 0 km/h
Sensor: Nr:Datum:Temp:Abs-Feuchte:Windchill:Wind:
Aussen-T/F 826 10-09-2010 00:00:00 16.18 C 10.13 g/m*3 16.18 C 0 km/h
827 11-09-2010 00:00:00 18.13417 C 10.44 g/m*3 18.13 C 0 km/h
828 12-09-2010 00:00:00 16.21667 C 10.52 g/m*3 16.22 C 0 km/h
829 13-09-2010 00:00:00 15.67583 C 9.31 g/m*3 15.68 C 0 km/h
830 14-09-2010 00:00:00 16.63697 C 8.96 g/m*3 16.64 C 0 km/h
831 15-09-2010 00:00:00 16.3175 C 7.82 g/m*3 16.32 C 0 km/h
832 16-09-2010 00:00:00 14.07 C 8.33 g/m*3 14.07 C 0 km/h
833 17-09-2010 00:00:00 13.76667 C 7.53 g/m*3 13.77 C 0 km/h
834 18-09-2010 00:00:00 11.45083 C 6.84 g/m*3 11.45 C 0 km/h
835 19-09-2010 00:00:00 11.7425 C 6.69 g/m*3 11.74 C 0 km/h
836 20-09-2010 00:00:00 14.01 C 7.27 g/m*3 14.01 C 0 km/h
837 21-09-2010 00:00:00 14.27 C 8.52 g/m*3 14.27 C 0 km/h
838 22-09-2010 00:00:00 15.86667 C 9.22 g/m*3 15.87 C 0 km/h
839 23-09-2010 00:00:00 16.56167 C 9.98 g/m*3 16.56 C 0 km/h
840 24-09-2010 00:00:00 14.165 C 11.47 g/m*3 14.17 C 0 km/h
841 25-09-2010 00:00:00 12.41833 C 7.9 g/m*3 12.42 C 0 km/h
842 26-09-2010 00:00:00 11.2425 C 7.29 g/m*3 11.24 C 0 km/h
843 27-09-2010 00:00:00 9.86807 C 7.48 g/m*3 9.87 C 0 km/h
844 28-09-2010 00:00:00 10.93083 C 9.4 g/m*3 10.93 C 0 km/h
845 29-09-2010 00:00:00 13.39417 C 8.9 g/m*3 13.39 C 0 km/h
846 30-09-2010 00:00:00 11.89667 C 8.83 g/m*3 11.9 C 0 km/h
847 01-10-2010 00:00:00 12.33667 C 9.1 g/m*3 12.34 C 0 km/h
848 02-10-2010 00:00:00 13.4525 C 10.36 g/m*3 13.45 C 0 km/h
849 03-10-2010 00:00:00 17.83583 C 10.56 g/m*3 17.84 C 0 km/h
850 04-10-2010 00:00:00 16.905 C 9.67 g/m*3 16.91 C 0 km/h
Sensor: Nr:Datum:Temp:Abs-Feuchte:Windchill:Wind:
Aussen-T/F 851 05-10-2010 00:00:00 15.64833 C 10.9 g/m*3 15.65 C 0 km/h
852 06-10-2010 00:00:00 17.22333 C 9.99 g/m*3 17.22 C 0 km/h
853 07-10-2010 00:00:00 16.31167 C 10.3 g/m*3 16.31 C 0 km/h
854 08-10-2010 00:00:00 16.02917 C 9.37 g/m*3 16.03 C 0 km/h
855 09-10-2010 00:00:00 13.1475 C 8.13 g/m*3 13.15 C 0 km/h
856 10-10-2010 00:00:00 11.6125 C 6.4 g/m*3 11.61 C 0 km/h
857 11-10-2010 00:00:00 10.90084 C 5.45 g/m*3 10.9 C 0 km/h
858 12-10-2010 00:00:00 8.71917 C 5.9 g/m*3 8.72 C 0 km/h
859 13-10-2010 00:00:00 7.475 C 5.54 g/m*3 7.48 C 0 km/h
860 14-10-2010 00:00:00 7.55583 C 5.99 g/m*3 7.56 C 0 km/h
861 15-10-2010 00:00:00 10.475 C 7.36 g/m*3 10.48 C 0 km/h
862 16-10-2010 00:00:00 8.375 C 7.62 g/m*3 8.38 C 0 km/h
863 17-10-2010 00:00:00 7.22667 C 6.33 g/m*3 7.23 C 0 km/h
864 18-10-2010 00:00:00 6.71833 C 5.58 g/m*3 6.72 C 0 km/h
865 19-10-2010 00:00:00 7.28167 C 6.47 g/m*3 7.28 C 0 km/h
866 20-10-2010 00:00:00 6.14167 C 5.97 g/m*3 6.14 C 0 km/h
867 21-10-2010 00:00:00 5.27 C 4.63 g/m*3 5.27 C 0 km/h
868 22-10-2010 00:00:00 4.20167 C 4.11 g/m*3 4.2 C 0 km/h
869 23-10-2010 00:00:00 4.37899 C 4.82 g/m*3 4.38 C 0 km/h
870 24-10-2010 00:00:00 8.55667 C 5.66 g/m*3 8.56 C 0 km/h
871 25-10-2010 00:00:00 6.1525 C 5.22 g/m*3 6.15 C 0 km/h
872 26-10-2010 00:00:00 3.62417 C 5.12 g/m*3 3.62 C 0 km/h
873 27-10-2010 00:00:00 8.14917 C 4.91 g/m*3 8.15 C 0 km/h
874 28-10-2010 00:00:00 9.1725 C 5.55 g/m*3 9.17 C 0 km/h
875 29-10-2010 00:00:00 6.48333 C 6.48 g/m*3 6.48 C 0 km/h
Sensor: Nr:Datum:Temp:Abs-Feuchte:Windchill:Wind:
Aussen-T/F 876 02-11-2010 00:00:00 11.31548 C 6.81 g/m*3 11.32 C 0 km/h
877 03-11-2010 00:00:00 13.10333 C 7.84 g/m*3 13.1 C 0 km/h
878 04-11-2010 00:00:00 16.41167 C 8.7 g/m*3 16.41 C 0 km/h
879 05-11-2010 00:00:00 14.51917 C 7.32 g/m*3 14.52 C 0 km/h
880 06-11-2010 00:00:00 10.40917 C 7.73 g/m*3 10.41 C 0 km/h
881 07-11-2010 00:00:00 6.86917 C 7.11 g/m*3 6.87 C 0 km/h
882 08-11-2010 00:00:00 4.65583 C 5.68 g/m*3 4.66 C 0 km/h
883 09-11-2010 00:00:00 6.65667 C 6.48 g/m*3 6.66 C 0 km/h
884 10-11-2010 00:00:00 7.08319 C 6.48 g/m*3 7.08 C 0 km/h
885 11-11-2010 00:00:00 5.84167 C 5.32 g/m*3 5.84 C 0 km/h
886 12-11-2010 00:00:00 11.04083 C 6.73 g/m*3 11.04 C 0 km/h
887 13-11-2010 00:00:00 14.51917 C 8.83 g/m*3 14.52 C 0 km/h
888 14-11-2010 00:00:00 14.60833 C 7.79 g/m*3 14.61 C 0 km/h
889 15-11-2010 00:00:00 9.47833 C 6.15 g/m*3 9.48 C 0 km/h
890 16-11-2010 00:00:00 6.0125 C 5.77 g/m*3 6.01 C 0 km/h
891 17-11-2010 00:00:00 5.3125 C 5.17 g/m*3 5.31 C 0 km/h
892 18-11-2010 00:00:00 5.61917 C 5.95 g/m*3 5.62 C 0 km/h
893 19-11-2010 00:00:00 6.4275 C 6.1 g/m*3 6.43 C 0 km/h
894 20-11-2010 00:00:00 4.8325 C 5.94 g/m*3 4.83 C 0 km/h
895 21-11-2010 00:00:00 4.48333 C 4.84 g/m*3 4.48 C 0 km/h
896 22-11-2010 00:00:00 4.47417 C 4.96 g/m*3 4.47 C 0 km/h
897 23-11-2010 00:00:00 4.54118 C 4.59 g/m*3 4.54 C 0 km/h
898 24-11-2010 00:00:00 3.415 C 4.9 g/m*3 3.42 C 0 km/h
899 25-11-2010 00:00:00 1.74083 C 4.39 g/m*3 1.74 C 0 km/h
900 26-11-2010 00:00:00 -0.29083 C 4.18 g/m*3 -0.29 C 0 km/h
Sensor: Nr:Datum:Temp:Abs-Feuchte:Windchill:Wind:
Aussen-T/F 901 27-11-2010 00:00:00 -1.99167 C 3.56 g/m*3 -1.99 C 0 km/h
902 28-11-2010 00:00:00 -1.325 C 3.55 g/m*3 -1.33 C 0 km/h
903 29-11-2010 00:00:00 -1.55833 C 3.51 g/m*3 -1.56 C 0 km/h
904 30-11-2010 00:00:00 -1.9425 C 3.4 g/m*3 -1.94 C 0 km/h
905 01-12-2010 00:00:00 -5.7325 C 1.99 g/m*3 -5.73 C 0 km/h
906 02-12-2010 00:00:00 -7.03167 C 2.03 g/m*3 -7.03 C 0 km/h
907 03-12-2010 00:00:00 -7.38583 C 2.19 g/m*3 -7.39 C 0 km/h
908 04-12-2010 00:00:00 -3.48167 C 2.61 g/m*3 -3.48 C 0 km/h
909 05-12-2010 00:00:00 0.91667 C 3.38 g/m*3 0.92 C 0 km/h
910 06-12-2010 00:00:00 0.24538 C 4.01 g/m*3 0.25 C 0 km/h
911 07-12-2010 00:00:00 -0.20833 C 3.88 g/m*3 -0.21 C 0 km/h
912 08-12-2010 00:00:00 -0.25917 C 4.32 g/m*3 -0.26 C 0 km/h
913 09-12-2010 00:00:00 0.61333 C 3.92 g/m*3 0.61 C 0 km/h
914 10-12-2010 00:00:00 1.73333 C 4.69 g/m*3 1.73 C 0 km/h
915 11-12-2010 00:00:00 4.07583 C 5.18 g/m*3 4.08 C 0 km/h
916 12-12-2010 00:00:00 3.085 C 4.57 g/m*3 3.09 C 0 km/h
917 13-12-2010 00:00:00 -4.44833 C 2.51 g/m*3 -4.45 C 0 km/h
918 14-12-2010 00:00:00 -3.65833 C 2.82 g/m*3 -3.66 C 0 km/h
919 15-12-2010 00:00:00 -3.1275 C 2.86 g/m*3 -3.13 C 0 km/h
920 16-12-2010 00:00:00 -3.4675 C 2.96 g/m*3 -3.47 C 0 km/h
921 17-12-2010 00:00:00 -2.77417 C 2.92 g/m*3 -2.77 C 0 km/h
922 18-12-2010 00:00:00 -4.65833 C 2.74 g/m*3 -4.66 C 0 km/h
923 19-12-2010 00:00:00 -0.7125 C 3.86 g/m*3 -0.71 C 0 km/h
924 20-12-2010 00:00:00 -1.53667 C 3.48 g/m*3 -1.54 C 0 km/h
925 21-12-2010 00:00:00 -0.65546 C 4 g/m*3 -0.66 C 0 km/h
Sensor: Nr:Datum:Temp:Abs-Feuchte:Windchill:Wind:
Aussen-T/F 926 22-12-2010 00:00:00 0.9225 C 4.66 g/m*3 0.92 C 0 km/h
927 23-12-2010 00:00:00 -0.36833 C 4.23 g/m*3 -0.37 C 0 km/h
928 24-12-2010 00:00:00 -1.77438 C 3.53 g/m*3 -1.77 C 0 km/h
929 25-12-2010 00:00:00 -5.4775 C 2.37 g/m*3 -5.48 C 0 km/h
930 26-12-2010 00:00:00 -4.87833 C 2.59 g/m*3 -4.88 C 0 km/h
931 27-12-2010 00:00:00 -2.21833 C 3.28 g/m*3 -2.22 C 0 km/h
932 28-12-2010 00:00:00 -2.07899 C 3.35 g/m*3 -2.08 C 0 km/h
933 29-12-2010 00:00:00 -0.255 C 3.76 g/m*3 -0.26 C 0 km/h
934 30-12-2010 00:00:00 -0.55333 C 3.62 g/m*3 -0.55 C 0 km/h
935 31-12-2010 00:00:00 -1.09187 C 3.57 g/m*3 -1.09 C 0 km/h
936 01-01-2011 00:00:00 1.07311 C 4.52 g/m*3 1.07 C 0 km/h
937 02-01-2011 00:00:00 0.8025 C 4.39 g/m*3 0.8 C 0 km/h
938 03-01-2011 00:00:00 -0.9125 C 3.88 g/m*3 -0.91 C 0 km/h
939 04-01-2011 00:00:00 -2.36667 C 3.35 g/m*3 -2.37 C 0 km/h
940 05-01-2011 00:00:00 -3.83583 C 2.66 g/m*3 -3.84 C 0 km/h
941 06-01-2011 00:00:00 3.72667 C 5.49 g/m*3 3.73 C 0 km/h
942 07-01-2011 00:00:00 6.91833 C 6.93 g/m*3 6.92 C 0 km/h
943 08-01-2011 00:00:00 10.5675 C 7.09 g/m*3 10.57 C 0 km/h
944 09-01-2011 00:00:00 5.08655 C 5.84 g/m*3 5.09 C 0 km/h
945 10-01-2011 00:00:00 0.7175 C 4.39 g/m*3 0.72 C 0 km/h
946 11-01-2011 00:00:00 3.43667 C 4.81 g/m*3 3.44 C 0 km/h
947 12-01-2011 00:00:00 5.44 C 5.5 g/m*3 5.44 C 0 km/h
948 13-01-2011 00:00:00 11.80333 C 8.2 g/m*3 11.8 C 0 km/h
949 14-01-2011 00:00:00 11.77417 C 6.94 g/m*3 11.77 C 0 km/h
950 15-01-2011 00:00:00 8.68167 C 5.98 g/m*3 8.68 C 0 km/h
Sensor: Nr:Datum:Temp:Abs-Feuchte:Windchill:Wind:
Aussen-T/F 951 16-01-2011 00:00:00 6.84167 C 5.88 g/m*3 6.84 C 0 km/h
952 17-01-2011 00:00:00 3.62917 C 5.41 g/m*3 3.63 C 0 km/h
953 18-01-2011 00:00:00 7.28833 C 6.01 g/m*3 7.29 C 0 km/h
954 19-01-2011 00:00:00 3.30833 C 4.71 g/m*3 3.31 C 0 km/h
955 20-01-2011 00:00:00 1.7 C 4.36 g/m*3 1.7 C 0 km/h
956 21-01-2011 00:00:00 -0.0675 C 3.06 g/m*3 -0.07 C 0 km/h
957 22-01-2011 00:00:00 0.39664 C 3.9 g/m*3 0.4 C 0 km/h
958 23-01-2011 00:00:00 1.50167 C 4.65 g/m*3 1.5 C 0 km/h
959 24-01-2011 00:00:00 3.10167 C 5.07 g/m*3 3.1 C 0 km/h
960 25-01-2011 00:00:00 2.49833 C 4.56 g/m*3 2.5 C 0 km/h
961 26-01-2011 00:00:00 0.84083 C 4.26 g/m*3 0.84 C 0 km/h
962 27-01-2011 00:00:00 -0.28583 C 3.4 g/m*3 -0.29 C 0 km/h
963 28-01-2011 00:00:00 -1.27083 C 2.87 g/m*3 -1.27 C 0 km/h
964 29-01-2011 00:00:00 -4.9 C 2.7 g/m*3 -4.9 C 0 km/h
965 30-01-2011 00:00:00 -6.20917 C 2.48 g/m*3 -6.21 C 0 km/h
966 31-01-2011 00:00:00 -5.73833 C 2.59 g/m*3 -5.74 C 0 km/h
967 01-02-2011 00:00:00 -4.03917 C 2.66 g/m*3 -4.04 C 0 km/h
968 02-02-2011 00:00:00 -0.865 C 3.47 g/m*3 -0.87 C 0 km/h
969 03-02-2011 00:00:00 1.94454 C 4.48 g/m*3 1.94 C 0 km/h
970 04-02-2011 00:00:00 6.18583 C 5.15 g/m*3 6.19 C 0 km/h
971 05-02-2011 00:00:00 9.25833 C 5.56 g/m*3 9.26 C 0 km/h
972 06-02-2011 00:00:00 8.62 C 5.16 g/m*3 8.62 C 0 km/h
973 07-02-2011 00:00:00 6.48083 C 4.13 g/m*3 6.48 C 0 km/h
974 08-02-2011 00:00:00 5.48833 C 4.56 g/m*3 5.49 C 0 km/h
975 09-02-2011 00:00:00 -0.23333 C 3.95 g/m*3 -0.23 C 0 km/h
Sensor: Nr:Datum:Temp:Abs-Feuchte:Windchill:Wind:
Aussen-T/F 976 10-02-2011 00:00:00 3.9425 C 4.99 g/m*3 3.94 C 0 km/h
977 11-02-2011 00:00:00 10.23917 C 7.08 g/m*3 10.24 C 0 km/h
978 12-02-2011 00:00:00 6.88 C 6.26 g/m*3 6.88 C 0 km/h
979 13-02-2011 00:00:00 5.13417 C 5.66 g/m*3 5.13 C 0 km/h
980 14-02-2011 00:00:00 5.215 C 5.63 g/m*3 5.22 C 0 km/h
981 15-02-2011 00:00:00 5.14958 C 5.71 g/m*3 5.15 C 0 km/h
982 16-02-2011 00:00:00 4.90417 C 5.38 g/m*3 4.9 C 0 km/h
983 17-02-2011 00:00:00 1.96333 C 4.29 g/m*3 1.96 C 0 km/h
984 18-02-2011 00:00:00 2.23667 C 4.1 g/m*3 2.24 C 0 km/h
985 19-02-2011 00:00:00 2.82833 C 4.31 g/m*3 2.83 C 0 km/h
986 20-02-2011 00:00:00 0.7 C 3.16 g/m*3 0.7 C 0 km/h
987 21-02-2011 00:00:00 -1.8125 C 2.2 g/m*3 -1.81 C 0 km/h
988 22-02-2011 00:00:00 -3.39167 C 1.99 g/m*3 -3.39 C 0 km/h
989 23-02-2011 00:00:00 -2.66583 C 2.02 g/m*3 -2.67 C 0 km/h
990 24-02-2011 00:00:00 0.91083 C 3.9 g/m*3 0.91 C 0 km/h
991 25-02-2011 00:00:00 3.445 C 5.16 g/m*3 3.45 C 0 km/h
992 26-02-2011 00:00:00 5.07167 C 5.18 g/m*3 5.07 C 0 km/h
993 27-02-2011 00:00:00 5.47731 C 5.17 g/m*3 5.48 C 0 km/h
994 28-02-2011 00:00:00 4.52333 C 4.47 g/m*3 4.52 C 0 km/h
995 01-03-2011 00:00:00 4.31167 C 4.54 g/m*3 4.31 C 0 km/h
996 02-03-2011 00:00:00 3.41 C 3.07 g/m*3 3.41 C 0 km/h
997 03-03-2011 00:00:00 1.585 C 2.66 g/m*3 1.59 C 0 km/h
998 04-03-2011 00:00:00 2.1825 C 3.4 g/m*3 2.18 C 0 km/h
999 05-03-2011 00:00:00 0.19833 C 3.69 g/m*3 0.2 C 0 km/h
1000 06-03-2011 00:00:00 1.7325 C 3.29 g/m*3 1.73 C 0 km/h
Sensor: Nr:Datum:Temp:Abs-Feuchte:Windchill:Wind:
Aussen-T/F 1001 07-03-2011 00:00:00 1.05667 C 2.45 g/m*3 1.06 C 0 km/h
1002 08-03-2011 00:00:00 1.92583 C 2.89 g/m*3 1.93 C 0 km/h
1003 09-03-2011 00:00:00 6.48333 C 4.63 g/m*3 6.48 C 0 km/h
1004 10-03-2011 00:00:00 7.3 C 4.55 g/m*3 7.3 C 0 km/h
1005 11-03-2011 00:00:00 8.78571 C 4.65 g/m*3 8.79 C 0 km/h
1006 12-03-2011 00:00:00 7.3525 C 4.83 g/m*3 7.35 C 0 km/h
1007 13-03-2011 00:00:00 11.07917 C 6.51 g/m*3 11.08 C 0 km/h
1008 14-03-2011 00:00:00 10.09917 C 7.33 g/m*3 10.1 C 0 km/h
1009 15-03-2011 00:00:00 10.73917 C 6.79 g/m*3 10.74 C 0 km/h
1010 16-03-2011 00:00:00 8.73583 C 5.74 g/m*3 8.74 C 0 km/h
1011 17-03-2011 00:00:00 6.295 C 5.87 g/m*3 6.3 C 0 km/h
1012 18-03-2011 00:00:00 6.41833 C 5.24 g/m*3 6.42 C 0 km/h
1013 19-03-2011 00:00:00 6.63 C 4.93 g/m*3 6.63 C 0 km/h
1014 20-03-2011 00:00:00 3.39167 C 3.78 g/m*3 3.39 C 0 km/h
1015 21-03-2011 00:00:00 4.66333 C 3.99 g/m*3 4.66 C 0 km/h
1016 22-03-2011 00:00:00 6.83333 C 4.54 g/m*3 6.83 C 0 km/h
1017 23-03-2011 00:00:00 8.59333 C 5.59 g/m*3 8.59 C 0 km/h
1018 24-03-2011 00:00:00 9.14417 C 5.42 g/m*3 9.14 C 0 km/h
1019 25-03-2011 00:00:00 9.65798 C 5.14 g/m*3 9.66 C 0 km/h
1020 26-03-2011 00:00:00 8.11917 C 4.97 g/m*3 8.12 C 0 km/h
1021 27-03-2011 00:00:00 9.62174 C 4.9 g/m*3 9.62 C 0 km/h
1022 28-03-2011 00:00:00 7.7225 C 4.66 g/m*3 7.72 C 0 km/h
1023 29-03-2011 00:00:00 7.42083 C 4.65 g/m*3 7.42 C 0 km/h
1024 30-03-2011 00:00:00 8.36333 C 5.61 g/m*3 8.36 C 0 km/h
1025 31-03-2011 00:00:00 12.03833 C 7.81 g/m*3 12.04 C 0 km/h
Sensor: Nr:Datum:Temp:Abs-Feuchte:Windchill:Wind:
Aussen-T/F 1026 01-04-2011 00:00:00 13.985 C 8.25 g/m*3 13.99 C 0 km/h
1027 02-04-2011 00:00:00 14.21833 C 8.12 g/m*3 14.22 C 0 km/h
1028 03-04-2011 00:00:00 11.81167 C 8.04 g/m*3 11.81 C 0 km/h
1029 04-04-2011 00:00:00 10.68333 C 6.57 g/m*3 10.68 C 0 km/h
1030 05-04-2011 00:00:00 9.30833 C 6.12 g/m*3 9.31 C 0 km/h
1031 06-04-2011 00:00:00 15.69167 C 8.48 g/m*3 15.69 C 0 km/h
1032 07-04-2011 00:00:00 16.35294 C 8.33 g/m*3 16.35 C 0 km/h
1033 08-04-2011 00:00:00 13.4925 C 6.55 g/m*3 13.49 C 0 km/h
1034 09-04-2011 00:00:00 12.96917 C 5.63 g/m*3 12.97 C 0 km/h
1035 10-04-2011 00:00:00 12.2825 C 6.01 g/m*3 12.28 C 0 km/h
1036 11-04-2011 00:00:00 14.76333 C 6.76 g/m*3 14.76 C 0 km/h
1037 12-04-2011 00:00:00 10.27917 C 5.45 g/m*3 10.28 C 0 km/h
1038 13-04-2011 00:00:00 7.60083 C 4.45 g/m*3 7.6 C 0 km/h
1039 14-04-2011 00:00:00 8.3025 C 4.49 g/m*3 8.3 C 0 km/h
1040 15-04-2011 00:00:00 7.43583 C 4.66 g/m*3 7.44 C 0 km/h
1041 16-04-2011 00:00:00 8.14667 C 4.58 g/m*3 8.15 C 0 km/h
1042 17-04-2011 00:00:00 11.61917 C 4.82 g/m*3 11.62 C 0 km/h
1043 18-04-2011 00:00:00 10.9521 C 5.51 g/m*3 10.95 C 0 km/h
1044 19-04-2011 00:00:00 12.87583 C 6.2 g/m*3 12.88 C 0 km/h
1045 20-04-2011 00:00:00 13.54917 C 6.5 g/m*3 13.55 C 0 km/h
1046 21-04-2011 00:00:00 14.49333 C 6.84 g/m*3 14.49 C 0 km/h
1047 22-04-2011 00:00:00 16.35083 C 7.67 g/m*3 16.35 C 0 km/h
1048 23-04-2011 00:00:00 18.26083 C 9.25 g/m*3 18.26 C 0 km/h
1049 24-04-2011 00:00:00 16.74333 C 7.71 g/m*3 16.74 C 0 km/h
1050 25-04-2011 00:00:00 15.975 C 6.16 g/m*3 15.98 C 0 km/h
Sensor: Nr:Datum:Temp:Abs-Feuchte:Windchill:Wind:
Aussen-T/F 1051 26-04-2011 00:00:00 12.8275 C 6.81 g/m*3 12.83 C 0 km/h
1052 27-04-2011 00:00:00 11.27167 C 7.84 g/m*3 11.27 C 0 km/h
1053 28-04-2011 00:00:00 13.99 C 8.66 g/m*3 13.99 C 0 km/h
1054 29-04-2011 00:00:00 15.08333 C 8.49 g/m*3 15.08 C 0 km/h
1055 30-04-2011 00:00:00 15.42 C 7.44 g/m*3 15.42 C 0 km/h
1056 01-05-2011 00:00:00 15.09328 C 4.89 g/m*3 15.09 C 0 km/h
1057 02-05-2011 00:00:00 11.83333 C 4.67 g/m*3 11.83 C 0 km/h
1058 03-05-2011 00:00:00 10.93167 C 4.17 g/m*3 10.93 C 0 km/h
1059 04-05-2011 00:00:00 8.28 C 4.54 g/m*3 8.28 C 0 km/h
1060 05-05-2011 00:00:00 10.32333 C 5.35 g/m*3 10.32 C 0 km/h
1061 06-05-2011 00:00:00 13.52917 C 6.22 g/m*3 13.53 C 0 km/h
1062 07-05-2011 00:00:00 17.6125 C 7.44 g/m*3 17.61 C 0 km/h
1063 08-05-2011 00:00:00 19.07167 C 6.15 g/m*3 19.07 C 0 km/h
1064 09-05-2011 00:00:00 18.40083 C 6.19 g/m*3 18.4 C 0 km/h
1065 10-05-2011 00:00:00 17.95833 C 7.69 g/m*3 17.96 C 0 km/h
1066 11-05-2011 00:00:00 18.40667 C 9.52 g/m*3 18.41 C 0 km/h
1067 12-05-2011 00:00:00 15.77833 C 7.19 g/m*3 15.78 C 0 km/h
1068 13-05-2011 00:00:00 13.68403 C 6.25 g/m*3 13.68 C 0 km/h
1069 14-05-2011 00:00:00 12.59917 C 5.87 g/m*3 12.6 C 0 km/h
1070 15-05-2011 00:00:00 10.34333 C 6.13 g/m*3 10.34 C 0 km/h
1071 16-05-2011 00:00:00 12.58667 C 6.68 g/m*3 12.59 C 0 km/h
1072 17-05-2011 00:00:00 17.04083 C 7.51 g/m*3 17.04 C 0 km/h
1073 18-05-2011 00:00:00 16.60583 C 7.79 g/m*3 16.61 C 0 km/h
1074 19-05-2011 00:00:00 17.10833 C 9.04 g/m*3 17.11 C 0 km/h
1075 20-05-2011 00:00:00 16.53 C 10.17 g/m*3 16.53 C 0 km/h
Sensor: Nr:Datum:Temp:Abs-Feuchte:Windchill:Wind:
Aussen-T/F 1076 21-05-2011 00:00:00 19.16077 C 9.98 g/m*3 19.16 C 0 km/h
1077 22-05-2011 00:00:00 16.79593 C 8.96 g/m*3 16.8 C 0 km/h
1078 23-05-2011 00:00:00 16.00167 C 6.77 g/m*3 16 C 0 km/h
1079 24-05-2011 00:00:00 15.90583 C 6.52 g/m*3 15.91 C 0 km/h
1080 25-05-2011 00:00:00 15.29333 C 5.83 g/m*3 15.29 C 0 km/h
1081 26-05-2011 00:00:00 16.04833 C 5.88 g/m*3 16.05 C 0 km/h
1082 27-05-2011 00:00:00 14.61 C 5.61 g/m*3 14.61 C 0 km/h
1083 28-05-2011 00:00:00 15.2875 C 6.34 g/m*3 15.29 C 0 km/h
1084 29-05-2011 00:00:00 19.21849 C 6.84 g/m*3 19.22 C 0 km/h
1085 30-05-2011 00:00:00 20.91333 C 8.63 g/m*3 20.91 C 0 km/h
1086 31-05-2011 00:00:00 14.84583 C 9.06 g/m*3 14.85 C 0 km/h
1087 01-06-2011 00:00:00 14.86083 C 7 g/m*3 14.86 C 0 km/h
1088 02-06-2011 00:00:00 19.79167 C 7.15 g/m*3 19.79 C 0 km/h
1089 03-06-2011 00:00:00 20.65583 C 6.79 g/m*3 20.66 C 0 km/h
1090 04-06-2011 00:00:00 21.20417 C 10.39 g/m*3 21.2 C 0 km/h
1091 05-06-2011 00:00:00 18.63333 C 12.99 g/m*3 18.63 C 0 km/h
1092 06-06-2011 00:00:00 18.38667 C 11.93 g/m*3 18.39 C 0 km/h

Maximal/Minimal-Werte vom 07.06.2008 - 06.06.2011

Sensor Min Max Avg
Temp
(Aussen-T/F)
-16.4 °C
20-12-2009  01:30:01
36 °C
10-07-2010  17:47:03
11.09 °C
Abs-Feuchte
(Aussen-T/F)
1.12 g/m*3
19-12-2009  00:00:00
13.98 g/m*3
30-06-2009  00:00:00
6.87 g/m*3
Windchill
(Aussen-T/F)
-12.79 C
19-12-2009  00:00:00
29.26 C
10-07-2010  00:00:00
11.01 C

Die Daten stammen von einer Davis Vantage Pro 2 Wetter-Station und werden unter Linux mit der Software wview2wettercgi und aufbereitet. Alle Angaben erfolgen ohne Gewähr für ihre Vollständigkeit oder Richtigkeit.
Kontakt: Rainer Krienke krienke@uni-koblenz.de . Meine Webseiten an der Uni Koblenz oder privat.
Version: $Revision: 0.78 $